Wetterdaten: aktuell Mittwoch, 23.01.2019 11:10
Datum Zeit Temp. Aussen Temp. o. S. +5cm Feuchte Auss Luftdruck Regen Sonnenschein Regendauer Solar Windben Empfang
23.01.2019 11:10 -0,9 C -0,6 C -1,1 C 86 % 997,2 hPa 0,0 l/m 0 min 0 min 142 W/m 16,1 km/h (3 Bft) 95,74 %
23.01.2019 11:08 -0,9 C -0,6 C -0,6 C 86 % 997,2 hPa 0,0 l/m 0 min 0 min 139 W/m 16,1 km/h (3 Bft) 95,12 %
23.01.2019 11:06 -0,9 C -0,6 C -0,6 C 86 % 997,1 hPa 0,0 l/m 0 min 0 min 137 W/m 9,7 km/h (2 Bft) 96,15 %
23.01.2019 11:04 -1,0 C -0,6 C -0,6 C 86 % 997,0 hPa 0,0 l/m 0 min 0 min 134 W/m 12,9 km/h (3 Bft) 97,87 %
23.01.2019 11:02 -1,0 C -0,6 C -1,1 C 86 % 997,0 hPa 0,0 l/m 0 min 0 min 125 W/m 6,4 km/h (2 Bft) 97,87 %
23.01.2019 11:00 -1,0 C -0,6 C -1,1 C 86 % 997,1 hPa 0,0 l/m 0 min 0 min 115 W/m 12,9 km/h (3 Bft) 100,00 %
23.01.2019 10:58 -0,9 C -0,6 C -1,1 C 86 % 997,0 hPa 0,0 l/m 0 min 0 min 121 W/m 9,7 km/h (2 Bft) 100,00 %
23.01.2019 10:56 -0,9 C -0,6 C -1,1 C 86 % 997,0 hPa 0,0 l/m 0 min 0 min 130 W/m 9,7 km/h (2 Bft) 95,74 %
23.01.2019 10:54 -1,0 C -0,6 C -1,1 C 86 % 997,0 hPa 0,0 l/m 0 min 0 min 133 W/m 9,7 km/h (2 Bft) 100,00 %
23.01.2019 10:52 -0,9 C -0,6 C -1,1 C 86 % 997,0 hPa 0,0 l/m 0 min 0 min 131 W/m 12,9 km/h (3 Bft) 100,00 %
23.01.2019 10:50 -0,9 C -0,6 C -1,1 C 86 % 996,9 hPa 0,0 l/m 0 min 0 min 132 W/m 12,9 km/h (3 Bft) 100,00 %
23.01.2019 10:48 -0,9 C -0,6 C -1,1 C 86 % 996,9 hPa 0,0 l/m 2 min 0 min 144 W/m 12,9 km/h (3 Bft) 100,00 %
23.01.2019 10:46 -1,0 C 0,0 C -0,6 C 86 % 996,9 hPa 0,0 l/m 2 min 0 min 147 W/m 12,9 km/h (3 Bft) 100,00 %
23.01.2019 10:44 -1,0 C 0,0 C -0,6 C 86 % 996,9 hPa 0,0 l/m 2 min 0 min 152 W/m 9,7 km/h (2 Bft) 100,00 %
23.01.2019 10:42 -1,0 C -0,6 C -1,1 C 86 % 996,8 hPa 0,0 l/m 2 min 0 min 141 W/m 9,7 km/h (2 Bft) 100,00 %
23.01.2019 10:40 -1,0 C -0,6 C -1,1 C 86 % 996,8 hPa 0,0 l/m 0 min 0 min 130 W/m 22,5 km/h (4 Bft) 100,00 %
23.01.2019 10:38 -1,0 C -0,6 C -1,1 C 87 % 996,8 hPa 0,0 l/m 0 min 0 min 134 W/m 9,7 km/h (2 Bft) 100,00 %
23.01.2019 10:36 -1,0 C -0,6 C -1,1 C 87 % 996,8 hPa 0,0 l/m 2 min 0 min 141 W/m 9,7 km/h (2 Bft) 100,00 %
23.01.2019 10:34 -1,0 C -0,6 C -1,1 C 87 % 996,8 hPa 0,0 l/m 2 min 0 min 142 W/m 16,1 km/h (3 Bft) 97,87 %
23.01.2019 10:32 -1,0 C -0,6 C -0,6 C 87 % 996,9 hPa 0,0 l/m 2 min 0 min 138 W/m 12,9 km/h (3 Bft) 97,83 %
23.01.2019 10:30 -1,1 C -0,6 C -0,6 C 87 % 996,9 hPa 0,0 l/m 2 min 0 min 131 W/m 9,7 km/h (2 Bft) 97,87 %
23.01.2019 10:28 -1,1 C -0,6 C -1,1 C 87 % 996,9 hPa 0,0 l/m 2 min 0 min 130 W/m 12,9 km/h (3 Bft) 95,74 %
23.01.2019 10:26 -1,1 C -0,6 C -1,1 C 87 % 996,8 hPa 0,0 l/m 2 min 0 min 126 W/m 9,7 km/h (2 Bft) 97,87 %
23.01.2019 10:24 -1,1 C -0,6 C -1,1 C 87 % 996,8 hPa 0,0 l/m 0 min 0 min 123 W/m 9,7 km/h (2 Bft) 97,87 %
23.01.2019 10:22 -1,1 C -0,6 C -1,1 C 87 % 996,8 hPa 0,0 l/m 0 min 0 min 119 W/m 12,9 km/h (3 Bft) 97,87 %
23.01.2019 10:20 -1,1 C -0,6 C -1,1 C 87 % 996,8 hPa 0,0 l/m 0 min 0 min 115 W/m 12,9 km/h (3 Bft) 97,83 %
23.01.2019 10:18 -1,2 C -0,6 C -1,1 C 87 % 996,7 hPa 0,0 l/m 0 min 0 min 114 W/m 9,7 km/h (2 Bft) 97,87 %
23.01.2019 10:16 -1,2 C -1,1 C -1,7 C 87 % 996,7 hPa 0,0 l/m 0 min 0 min 113 W/m 16,1 km/h (3 Bft) 95,74 %
23.01.2019 10:14 -1,2 C -0,6 C -1,1 C 88 % 996,7 hPa 0,0 l/m 0 min 0 min 111 W/m 19,3 km/h (3 Bft) 95,74 %
23.01.2019 10:12 -1,2 C -0,6 C -1,1 C 88 % 996,7 hPa 0,0 l/m 2 min 0 min 117 W/m 12,9 km/h (3 Bft) 97,87 %
23.01.2019 10:10 -1,2 C -0,6 C -1,1 C 88 % 996,6 hPa 0,0 l/m 2 min 0 min 130 W/m 9,7 km/h (2 Bft) 97,87 %
23.01.2019 10:08 -1,2 C -0,6 C -1,1 C 88 % 996,6 hPa 0,0 l/m 2 min 0 min 129 W/m 9,7 km/h (2 Bft) 100,00 %
23.01.2019 10:06 -1,3 C -0,6 C -1,1 C 88 % 996,6 hPa 0,0 l/m 2 min 0 min 121 W/m 12,9 km/h (3 Bft) 96,55 %
23.01.2019 10:04 -1,3 C -0,6 C -1,7 C 89 % 996,6 hPa 0,0 l/m 2 min 0 min 110 W/m 9,7 km/h (2 Bft) 97,87 %
23.01.2019 10:02 -1,3 C -0,6 C -1,7 C 89 % 996,6 hPa 0,0 l/m 0 min 0 min 100 W/m 12,9 km/h (3 Bft) 95,74 %
23.01.2019 10:00 -1,3 C -0,6 C -1,7 C 89 % 996,6 hPa 0,0 l/m 2 min 0 min 107 W/m 9,7 km/h (2 Bft) 97,87 %
23.01.2019 09:58 -1,3 C -0,6 C -1,7 C 89 % 996,5 hPa 0,0 l/m 2 min 0 min 107 W/m 9,7 km/h (2 Bft) 97,87 %
23.01.2019 09:56 -1,4 C -0,6 C -1,7 C 89 % 996,5 hPa 0,0 l/m 2 min 0 min 100 W/m 12,9 km/h (3 Bft) 97,83 %
23.01.2019 09:54 -1,4 C -1,1 C -1,7 C 89 % 996,5 hPa 0,0 l/m 0 min 0 min 85 W/m 9,7 km/h (2 Bft) 97,87 %
23.01.2019 09:52 -1,4 C -1,1 C -1,7 C 89 % 996,6 hPa 0,0 l/m 0 min 0 min 82 W/m 9,7 km/h (2 Bft) 97,87 %
23.01.2019 09:50 -1,4 C -1,1 C -1,7 C 89 % 996,5 hPa 0,0 l/m 0 min 0 min 81 W/m 9,7 km/h (2 Bft) 97,87 %
23.01.2019 09:48 -1,5 C -1,1 C -1,7 C 89 % 996,5 hPa 0,0 l/m 0 min 0 min 79 W/m 9,7 km/h (2 Bft) 97,87 %
23.01.2019 09:46 -1,5 C -1,1 C -1,7 C 89 % 996,5 hPa 0,0 l/m 0 min 0 min 78 W/m 12,9 km/h (3 Bft) 97,87 %
23.01.2019 09:44 -1,6 C -1,1 C -1,7 C 89 % 996,5 hPa 0,0 l/m 0 min 0 min 76 W/m 9,7 km/h (2 Bft) 97,83 %
23.01.2019 09:42 -1,6 C -1,1 C -2,2 C 89 % 996,5 hPa 0,0 l/m 0 min 0 min 69 W/m 6,4 km/h (2 Bft) 97,87 %
23.01.2019 09:40 -1,6 C -1,7 C -2,2 C 89 % 996,5 hPa 0,0 l/m 0 min 0 min 59 W/m 12,9 km/h (3 Bft) 97,87 %
23.01.2019 09:38 -1,6 C -1,7 C -2,2 C 90 % 996,5 hPa 0,0 l/m 0 min 0 min 53 W/m 12,9 km/h (3 Bft) 100,00 %
23.01.2019 09:36 -1,7 C -1,7 C -2,2 C 90 % 996,5 hPa 0,0 l/m 0 min 0 min 46 W/m 12,9 km/h (3 Bft) 96,61 %
23.01.2019 09:34 -1,7 C -1,7 C -2,2 C 90 % 996,4 hPa 0,0 l/m 0 min 0 min 40 W/m 12,9 km/h (3 Bft) 100,00 %
23.01.2019 09:32 -1,7 C -1,7 C -2,2 C 90 % 996,4 hPa 0,0 l/m 0 min 0 min 39 W/m 9,7 km/h (2 Bft) 97,87 %
23.01.2019 09:30 -1,7 C -1,7 C -2,2 C 90 % 996,5 hPa 0,0 l/m 0 min 0 min 40 W/m 9,7 km/h (2 Bft) 97,87 %
23.01.2019 09:28 -1,7 C -1,7 C -2,2 C 90 % 996,4 hPa 0,0 l/m 0 min 0 min 40 W/m 19,3 km/h (3 Bft) 97,87 %
23.01.2019 09:26 -1,7 C -1,7 C -2,2 C 90 % 996,4 hPa 0,0 l/m 0 min 0 min 36 W/m 9,7 km/h (2 Bft) 97,87 %
23.01.2019 09:24 -1,8 C -1,7 C -2,2 C 90 % 996,4 hPa 0,0 l/m 0 min 0 min 34 W/m 12,9 km/h (3 Bft) 100,00 %
23.01.2019 09:22 -1,8 C -1,7 C -2,2 C 90 % 996,4 hPa 0,0 l/m 0 min 0 min 31 W/m 12,9 km/h (3 Bft) 97,83 %
23.01.2019 09:20 -1,8 C -1,7 C -2,2 C 90 % 996,3 hPa 0,0 l/m 0 min 0 min 30 W/m 9,7 km/h (2 Bft) 100,00 %
23.01.2019 09:18 -1,8 C -1,7 C -2,2 C 90 % 996,3 hPa 0,0 l/m 0 min 0 min 29 W/m 9,7 km/h (2 Bft) 100,00 %
23.01.2019 09:16 -1,8 C -1,7 C -2,2 C 91 % 996,3 hPa 0,0 l/m 0 min 0 min 26 W/m 6,4 km/h (2 Bft) 95,74 %
23.01.2019 09:14 -1,8 C -1,7 C -2,8 C 91 % 996,3 hPa 0,0 l/m 0 min 0 min 25 W/m 9,7 km/h (2 Bft) 95,74 %
23.01.2019 09:12 -1,9 C -1,7 C -2,8 C 91 % 996,3 hPa 0,0 l/m 0 min 0 min 24 W/m 6,4 km/h (2 Bft) 95,74 %
23.01.2019 09:10 -1,9 C -2,2 C -2,8 C 91 % 996,3 hPa 0,0 l/m 0 min 0 min 23 W/m 9,7 km/h (2 Bft) 97,14 %
23.01.2019 09:08 -1,9 C -2,2 C -2,8 C 91 % 996,3 hPa 0,0 l/m 0 min 0 min 22 W/m 6,4 km/h (2 Bft) 97,87 %
23.01.2019 09:06 -1,9 C -2,2 C -2,8 C 91 % 996,2 hPa 0,0 l/m 0 min 0 min 23 W/m 9,7 km/h (2 Bft) 96,55 %
23.01.2019 09:04 -1,9 C -2,2 C -2,8 C 91 % 996,2 hPa 0,0 l/m 0 min 0 min 24 W/m 6,4 km/h (2 Bft) 97,14 %
23.01.2019 09:02 -1,9 C -2,2 C -2,8 C 91 % 996,2 hPa 0,0 l/m 0 min 0 min 23 W/m 12,9 km/h (3 Bft) 93,62 %
23.01.2019 09:00 -1,9 C -2,2 C -2,8 C 91 % 996,3 hPa 0,0 l/m 0 min 0 min 21 W/m 6,4 km/h (2 Bft) 97,87 %
23.01.2019 08:58 -1,9 C -2,2 C -2,8 C 91 % 996,3 hPa 0,0 l/m 0 min 0 min 19 W/m 9,7 km/h (2 Bft) 96,55 %
23.01.2019 08:56 -1,9 C -2,2 C -2,8 C 91 % 996,3 hPa 0,0 l/m 0 min 0 min 18 W/m 9,7 km/h (2 Bft) 95,74 %
23.01.2019 08:54 -2,0 C -2,2 C -2,8 C 91 % 996,3 hPa 0,0 l/m 0 min 0 min 17 W/m 9,7 km/h (2 Bft) 97,87 %
23.01.2019 08:52 -2,0 C -2,2 C -2,8 C 91 % 996,2 hPa 0,0 l/m 0 min 0 min 14 W/m 6,4 km/h (2 Bft) 97,87 %
23.01.2019 08:50 -2,1 C -2,2 C -2,8 C 91 % 996,3 hPa 0,0 l/m 0 min 0 min 12 W/m 6,4 km/h (2 Bft) 93,62 %
23.01.2019 08:48 -2,1 C -2,2 C -2,8 C 91 % 996,3 hPa 0,0 l/m 0 min 0 min 12 W/m 9,7 km/h (2 Bft) 95,74 %
23.01.2019 08:46 -2,1 C -2,2 C -2,8 C 91 % 996,2 hPa 0,0 l/m 0 min 0 min 11 W/m 12,9 km/h (3 Bft) 95,65 %
23.01.2019 08:44 -2,1 C -2,2 C -2,8 C 91 % 996,2 hPa 0,0 l/m 0 min 0 min 11 W/m 9,7 km/h (2 Bft) 95,74 %
23.01.2019 08:42 -2,1 C -2,2 C -2,8 C 91 % 996,2 hPa 0,0 l/m 0 min 0 min 11 W/m 6,4 km/h (2 Bft) 93,62 %
23.01.2019 08:40 -2,1 C -2,2 C -2,8 C 91 % 996,2 hPa 0,0 l/m 0 min 0 min 9 W/m 9,7 km/h (2 Bft) 91,43 %
23.01.2019 08:38 -2,2 C -2,2 C -2,8 C 91 % 996,2 hPa 0,0 l/m 0 min 0 min 8 W/m 12,9 km/h (3 Bft) 91,49 %
23.01.2019 08:36 -2,2 C -2,2 C -2,8 C 91 % 996,2 hPa 0,0 l/m 0 min 0 min 7 W/m 9,7 km/h (2 Bft) 98,28 %
23.01.2019 08:34 -2,2 C -2,2 C -2,8 C 91 % 996,1 hPa 0,0 l/m 0 min 0 min 5 W/m 9,7 km/h (2 Bft) 97,87 %
23.01.2019 08:32 -2,2 C -2,2 C -2,8 C 91 % 996,1 hPa 0,0 l/m 0 min 0 min 5 W/m 6,4 km/h (2 Bft) 97,14 %
23.01.2019 08:30 -2,3 C -2,2 C -2,8 C 91 % 996,1 hPa 0,0 l/m 0 min 0 min 0 W/m 9,7 km/h (2 Bft) 98,31 %
23.01.2019 08:28 -2,3 C -2,2 C -2,8 C 91 % 996,1 hPa 0,0 l/m 0 min 0 min 0 W/m 9,7 km/h (2 Bft) 95,74 %
23.01.2019 08:26 -2,3 C -2,2 C -2,8 C 91 % 996,2 hPa 0,0 l/m 0 min 0 min 0 W/m 12,9 km/h (3 Bft) 95,74 %
23.01.2019 08:24 -2,3 C -2,2 C -3,3 C 91 % 996,1 hPa 0,0 l/m 0 min 0 min 0 W/m 9,7 km/h (2 Bft) 95,65 %
23.01.2019 08:22 -2,4 C -2,2 C -3,3 C 91 % 996,1 hPa 0,0 l/m 0 min 0 min 0 W/m 9,7 km/h (2 Bft) 97,87 %
23.01.2019 08:20 -2,4 C -2,2 C -3,3 C 91 % 996,1 hPa 0,0 l/m 0 min 0 min 0 W/m 12,9 km/h (3 Bft) 97,87 %
23.01.2019 08:18 -2,4 C -2,8 C -3,3 C 91 % 996,1 hPa 0,0 l/m 0 min 0 min 0 W/m 6,4 km/h (2 Bft) 97,87 %
23.01.2019 08:16 -2,4 C -2,8 C -3,3 C 91 % 996,1 hPa 0,0 l/m 0 min 0 min 0 W/m 12,9 km/h (3 Bft) 94,29 %
23.01.2019 08:14 -2,5 C -2,8 C -3,3 C 91 % 996,1 hPa 0,0 l/m 0 min 0 min 0 W/m 9,7 km/h (2 Bft) 98,31 %
23.01.2019 08:12 -2,5 C -2,8 C -3,3 C 91 % 996,1 hPa 0,0 l/m 0 min 0 min 0 W/m 12,9 km/h (3 Bft) 97,83 %
23.01.2019 08:10 -2,6 C -2,8 C -3,3 C 91 % 996,1 hPa 0,0 l/m 0 min 0 min 0 W/m 12,9 km/h (3 Bft) 97,22 %
23.01.2019 08:08 -2,6 C -2,8 C -3,3 C 91 % 996,0 hPa 0,0 l/m 0 min 0 min 0 W/m 6,4 km/h (2 Bft) 97,83 %
23.01.2019 08:06 -2,6 C -2,8 C -3,3 C 91 % 996,0 hPa 0,0 l/m 0 min 0 min 0 W/m 6,4 km/h (2 Bft) 97,87 %
23.01.2019 08:04 -2,6 C -2,8 C -3,3 C 91 % 996,0 hPa 0,0 l/m 0 min 0 min 0 W/m 6,4 km/h (2 Bft) 96,61 %
23.01.2019 08:02 -2,7 C -2,8 C -3,3 C 91 % 996,0 hPa 0,0 l/m 0 min 0 min 0 W/m 12,9 km/h (3 Bft) 100,00 %
23.01.2019 08:00 -2,7 C -2,8 C -3,9 C 91 % 996,0 hPa 0,0 l/m 0 min 0 min 0 W/m 16,1 km/h (3 Bft) 97,87 %
23.01.2019 07:58 -2,7 C -2,8 C -3,9 C 91 % 996,0 hPa 0,0 l/m 0 min 0 min 0 W/m 6,4 km/h (2 Bft) 95,74 %
23.01.2019 07:56 -2,7 C -3,3 C -3,9 C 91 % 996,0 hPa 0,0 l/m 0 min 0 min 0 W/m 6,4 km/h (2 Bft) 97,83 %
23.01.2019 07:54 -2,7 C -3,3 C -3,9 C 91 % 996,0 hPa 0,0 l/m 0 min 0 min 0 W/m 6,4 km/h (2 Bft) 97,87 %
23.01.2019 07:52 -2,7 C -2,8 C -3,9 C 91 % 996,0 hPa 0,0 l/m 0 min 0 min 0 W/m 6,4 km/h (2 Bft) 95,74 %
23.01.2019 07:50 -2,7 C -2,8 C -3,9 C 91 % 996,0 hPa 0,0 l/m 0 min 0 min 0 W/m 6,4 km/h (2 Bft) 97,87 %
23.01.2019 07:48 -2,7 C -2,8 C -3,9 C 91 % 996,1 hPa 0,0 l/m 0 min 0 min 0 W/m 9,7 km/h (2 Bft) 100,00 %
23.01.2019 07:46 -2,7 C -3,3 C -3,9 C 91 % 996,1 hPa 0,0 l/m 0 min 0 min 0 W/m 6,4 km/h (2 Bft) 97,87 %
23.01.2019 07:44 -2,7 C -3,3 C -3,9 C 91 % 996,0 hPa 0,0 l/m 0 min 0 min 0 W/m 6,4 km/h (2 Bft) 97,83 %
23.01.2019 07:42 -2,7 C -3,3 C -3,9 C 90 % 996,0 hPa 0,0 l/m 0 min 0 min 0 W/m 9,7 km/h (2 Bft) 97,87 %
23.01.2019 07:40 -2,7 C -3,3 C -3,9 C 90 % 996,0 hPa 0,0 l/m 0 min 0 min 0 W/m 9,7 km/h (2 Bft) 97,87 %
23.01.2019 07:38 -2,7 C -3,3 C -3,9 C 90 % 996,0 hPa 0,0 l/m 0 min 0 min 0 W/m 6,4 km/h (2 Bft) 97,87 %
23.01.2019 07:36 -2,7 C -3,3 C -3,9 C 90 % 996,0 hPa 0,0 l/m 0 min 0 min 0 W/m 6,4 km/h (2 Bft) 97,87 %
23.01.2019 07:34 -2,7 C -3,3 C -3,9 C 91 % 995,9 hPa 0,0 l/m 0 min 0 min 0 W/m 9,7 km/h (2 Bft) 95,65 %
23.01.2019 07:32 -2,7 C -3,3 C -3,9 C 91 % 995,9 hPa 0,0 l/m 0 min 0 min 0 W/m 9,7 km/h (2 Bft) 95,74 %
23.01.2019 07:30 -2,7 C -3,3 C -3,9 C 90 % 995,9 hPa 0,0 l/m 0 min 0 min 0 W/m 9,7 km/h (2 Bft) 95,74 %
23.01.2019 07:28 -2,7 C -3,3 C -3,9 C 90 % 995,9 hPa 0,0 l/m 0 min 0 min 0 W/m 6,4 km/h (2 Bft) 97,87 %
23.01.2019 07:26 -2,7 C -3,3 C -3,9 C 90 % 995,9 hPa 0,0 l/m 0 min 0 min 0 W/m 9,7 km/h (2 Bft) 95,74 %
23.01.2019 07:24 -2,7 C -3,3 C -4,4 C 90 % 995,8 hPa 0,0 l/m 0 min 0 min 0 W/m 6,4 km/h (2 Bft) 97,87 %
23.01.2019 07:22 -2,7 C -3,3 C -3,9 C 90 % 995,9 hPa 0,0 l/m 0 min 0 min 0 W/m 9,7 km/h (2 Bft) 97,83 %
23.01.2019 07:20 -2,7 C -3,3 C -3,9 C 90 % 995,8 hPa 0,0 l/m 0 min 0 min 0 W/m 9,7 km/h (2 Bft) 93,62 %
23.01.2019 07:18 -2,7 C -3,3 C -3,9 C 90 % 995,9 hPa 0,0 l/m 0 min 0 min 0 W/m 9,7 km/h (2 Bft) 97,87 %
23.01.2019 07:16 -2,6 C -3,3 C -3,9 C 90 % 995,9 hPa 0,0 l/m 0 min 0 min 0 W/m 9,7 km/h (2 Bft) 97,87 %
23.01.2019 07:14 -2,6 C -3,3 C -3,9 C 90 % 995,9 hPa 0,0 l/m 0 min 0 min 0 W/m 6,4 km/h (2 Bft) 97,87 %
23.01.2019 07:12 -2,6 C -3,3 C -3,9 C 90 % 995,9 hPa 0,0 l/m 0 min 0 min 0 W/m 6,4 km/h (2 Bft) 97,87 %
23.01.2019 07:10 -2,6 C -3,3 C -3,9 C 90 % 995,9 hPa 0,0 l/m 0 min 0 min 0 W/m 9,7 km/h (2 Bft) 97,83 %
23.01.2019 07:08 -2,6 C -3,3 C -3,9 C 90 % 995,9 hPa 0,0 l/m 0 min 0 min 0 W/m 6,4 km/h (2 Bft) 95,83 %
23.01.2019 07:06 -2,5 C -3,3 C -3,9 C 90 % 995,8 hPa 0,0 l/m 0 min 0 min 0 W/m 9,7 km/h (2 Bft) 97,87 %
23.01.2019 07:04 -2,4 C -3,3 C -3,9 C 90 % 995,8 hPa 0,0 l/m 0 min 0 min 0 W/m 6,4 km/h (2 Bft) 97,83 %
23.01.2019 07:02 -2,4 C -3,3 C -3,9 C 90 % 995,8 hPa 0,0 l/m 0 min 0 min 0 W/m 6,4 km/h (2 Bft) 97,87 %
23.01.2019 07:00 -2,3 C -3,3 C -3,9 C 91 % 995,8 hPa 0,0 l/m 0 min 0 min 0 W/m 9,7 km/h (2 Bft) 97,87 %
23.01.2019 06:58 -2,3 C -3,3 C -3,9 C 91 % 995,8 hPa 0,0 l/m 0 min 0 min 0 W/m 6,4 km/h (2 Bft) 100,00 %
23.01.2019 06:56 -2,3 C -2,8 C -3,9 C 91 % 995,8 hPa 0,0 l/m 0 min 0 min 0 W/m 9,7 km/h (2 Bft) 100,00 %
23.01.2019 06:54 -2,2 C -2,8 C -3,9 C 91 % 995,8 hPa 0,0 l/m 0 min 0 min 0 W/m 9,7 km/h (2 Bft) 100,00 %
23.01.2019 06:52 -2,2 C -2,8 C -3,9 C 91 % 995,8 hPa 0,0 l/m 0 min 0 min 0 W/m 12,9 km/h (3 Bft) 97,83 %
23.01.2019 06:50 -2,1 C -2,8 C -3,3 C 91 % 995,9 hPa 0,0 l/m 0 min 0 min 0 W/m 9,7 km/h (2 Bft) 95,74 %
23.01.2019 06:48 -2,1 C -2,8 C -3,3 C 91 % 995,9 hPa 0,0 l/m 0 min 0 min 0 W/m 9,7 km/h (2 Bft) 100,00 %
23.01.2019 06:46 -2,1 C -2,8 C -3,3 C 91 % 995,9 hPa 0,0 l/m 0 min 0 min 0 W/m 16,1 km/h (3 Bft) 97,87 %
23.01.2019 06:44 -2,1 C -2,8 C -3,3 C 91 % 996,0 hPa 0,0 l/m 0 min 0 min 0 W/m 6,4 km/h (2 Bft) 97,87 %
23.01.2019 06:42 -2,0 C -2,8 C -3,3 C 91 % 996,0 hPa 0,0 l/m 0 min 0 min 0 W/m 9,7 km/h (2 Bft) 100,00 %
23.01.2019 06:40 -2,0 C -2,2 C -3,3 C 91 % 996,0 hPa 0,0 l/m 0 min 0 min 0 W/m 12,9 km/h (3 Bft) 95,74 %
23.01.2019 06:38 -1,9 C -2,2 C -3,3 C 91 % 995,9 hPa 0,0 l/m 0 min 0 min 0 W/m 9,7 km/h (2 Bft) 100,00 %
23.01.2019 06:36 -1,9 C -2,2 C -3,3 C 92 % 995,9 hPa 0,0 l/m 0 min 0 min 0 W/m 9,7 km/h (2 Bft) 98,00 %
23.01.2019 06:34 -1,9 C -2,2 C -2,8 C 92 % 995,9 hPa 0,0 l/m 0 min 0 min 0 W/m 9,7 km/h (2 Bft) 97,87 %
23.01.2019 06:32 -1,9 C -2,2 C -2,8 C 92 % 996,0 hPa 0,0 l/m 0 min 0 min 0 W/m 12,9 km/h (3 Bft) 97,87 %
23.01.2019 06:30 -1,9 C -2,2 C -2,8 C 92 % 995,9 hPa 0,0 l/m 0 min 0 min 0 W/m 16,1 km/h (3 Bft) 97,83 %
23.01.2019 06:28 -1,9 C -2,2 C -2,8 C 92 % 995,9 hPa 0,0 l/m 0 min 0 min 0 W/m 22,5 km/h (4 Bft) 97,87 %
23.01.2019 06:26 -1,9 C -2,2 C -2,8 C 92 % 995,9 hPa 0,0 l/m 0 min 0 min 0 W/m 16,1 km/h (3 Bft) 95,74 %
23.01.2019 06:24 -1,9 C -2,2 C -2,8 C 92 % 995,9 hPa 0,0 l/m 0 min 0 min 0 W/m 16,1 km/h (3 Bft) 97,87 %
23.01.2019 06:22 -1,9 C -2,2 C -2,8 C 92 % 996,0 hPa 0,0 l/m 0 min 0 min 0 W/m 16,1 km/h (3 Bft) 97,87 %
23.01.2019 06:20 -1,9 C -2,2 C -2,8 C 92 % 996,0 hPa 0,0 l/m 0 min 0 min 0 W/m 9,7 km/h (2 Bft) 95,65 %
23.01.2019 06:18 -1,9 C -2,2 C -2,8 C 92 % 995,9 hPa 0,0 l/m 0 min 0 min 0 W/m 12,9 km/h (3 Bft) 97,87 %
23.01.2019 06:16 -1,9 C -2,2 C -2,8 C 92 % 995,9 hPa 0,0 l/m 0 min 0 min 0 W/m 19,3 km/h (3 Bft) 95,74 %
23.01.2019 06:14 -1,9 C -2,2 C -2,8 C 92 % 995,9 hPa 0,0 l/m 0 min 0 min 0 W/m 12,9 km/h (3 Bft) 97,87 %
23.01.2019 06:12 -1,9 C -2,2 C -2,8 C 92 % 995,9 hPa 0,0 l/m 0 min 0 min 0 W/m 19,3 km/h (3 Bft) 97,87 %
23.01.2019 06:10 -2,0 C -2,2 C -2,8 C 92 % 996,0 hPa 0,0 l/m 0 min 0 min 0 W/m 9,7 km/h (2 Bft) 97,87 %
23.01.2019 06:08 -2,0 C -2,2 C -2,8 C 92 % 996,0 hPa 0,0 l/m 0 min 0 min 0 W/m 19,3 km/h (3 Bft) 97,85 %
23.01.2019 06:04 -2,0 C -2,2 C -2,8 C 92 % 996,0 hPa 0,0 l/m 0 min 0 min 0 W/m 9,7 km/h (2 Bft) 97,87 %
23.01.2019 06:02 -2,0 C -2,2 C -2,8 C 92 % 995,9 hPa 0,0 l/m 0 min 0 min 0 W/m 9,7 km/h (2 Bft) 95,83 %
23.01.2019 06:00 -2,1 C -2,2 C -2,8 C 92 % 995,9 hPa 0,0 l/m 0 min 0 min 0 W/m 9,7 km/h (2 Bft) 97,87 %
23.01.2019 05:58 -2,1 C -2,2 C -2,8 C 92 % 995,9 hPa 0,0 l/m 0 min 0 min 0 W/m 9,7 km/h (2 Bft) 98,15 %
23.01.2019 05:56 -2,1 C -2,2 C -2,8 C 92 % 995,9 hPa 0,0 l/m 0 min 0 min 0 W/m 9,7 km/h (2 Bft) 97,87 %
23.01.2019 05:54 -2,1 C -2,2 C -2,8 C 92 % 996,0 hPa 0,0 l/m 0 min 0 min 0 W/m 9,7 km/h (2 Bft) 97,87 %
23.01.2019 05:52 -2,1 C -2,2 C -2,8 C 93 % 996,0 hPa 0,0 l/m 0 min 0 min 0 W/m 12,9 km/h (3 Bft) 97,83 %
23.01.2019 05:50 -2,1 C -2,2 C -2,8 C 93 % 996,0 hPa 0,0 l/m 0 min 0 min 0 W/m 9,7 km/h (2 Bft) 97,22 %
23.01.2019 05:48 -2,1 C -2,2 C -2,8 C 93 % 995,9 hPa 0,0 l/m 0 min 0 min 0 W/m 16,1 km/h (3 Bft) 100,00 %
23.01.2019 05:46 -2,1 C -2,2 C -2,8 C 93 % 996,0 hPa 0,0 l/m 0 min 0 min 0 W/m 12,9 km/h (3 Bft) 100,00 %
23.01.2019 05:44 -2,1 C -2,2 C -2,8 C 93 % 996,0 hPa 0,0 l/m 0 min 0 min 0 W/m 9,7 km/h (2 Bft) 100,00 %
23.01.2019 05:42 -2,1 C -2,2 C -2,8 C 93 % 995,9 hPa 0,0 l/m 0 min 0 min 0 W/m 19,3 km/h (3 Bft) 97,87 %
23.01.2019 05:40 -2,1 C -2,2 C -2,8 C 93 % 995,9 hPa 0,0 l/m 0 min 0 min 0 W/m 9,7 km/h (2 Bft) 100,00 %
23.01.2019 05:38 -2,1 C -2,2 C -2,8 C 93 % 996,0 hPa 0,0 l/m 0 min 0 min 0 W/m 12,9 km/h (3 Bft) 100,00 %
23.01.2019 05:36 -2,1 C -2,2 C -2,8 C 93 % 996,0 hPa 0,0 l/m 0 min 0 min 0 W/m 9,7 km/h (2 Bft) 97,87 %
23.01.2019 05:34 -2,1 C -2,2 C -2,8 C 93 % 996,0 hPa 0,0 l/m 0 min 0 min 0 W/m 16,1 km/h (3 Bft) 100,00 %
23.01.2019 05:32 -2,2 C -2,2 C -2,8 C 93 % 996,0 hPa 0,0 l/m 0 min 0 min 0 W/m 22,5 km/h (4 Bft) 98,15 %
23.01.2019 05:30 -2,2 C -2,2 C -2,8 C 93 % 996,0 hPa 0,0 l/m 0 min 0 min 0 W/m 12,9 km/h (3 Bft) 100,00 %
23.01.2019 05:28 -2,2 C -2,2 C -2,8 C 93 % 996,0 hPa 0,0 l/m 0 min 0 min 0 W/m 12,9 km/h (3 Bft) 100,00 %
23.01.2019 05:26 -2,2 C -2,2 C -2,8 C 93 % 996,0 hPa 0,0 l/m 0 min 0 min 0 W/m 19,3 km/h (3 Bft) 100,00 %
23.01.2019 05:24 -2,2 C -2,2 C -2,8 C 93 % 996,0 hPa 0,0 l/m 0 min 0 min 0 W/m 19,3 km/h (3 Bft) 97,87 %
23.01.2019 05:22 -2,2 C -2,2 C -2,8 C 93 % 996,0 hPa 0,0 l/m 0 min 0 min 0 W/m 12,9 km/h (3 Bft) 100,00 %
23.01.2019 05:20 -2,2 C -2,2 C -2,8 C 93 % 996,1 hPa 0,0 l/m 0 min 0 min 0 W/m 19,3 km/h (3 Bft) 100,00 %
23.01.2019 05:18 -2,2 C -2,2 C -3,3 C 93 % 996,1 hPa 0,0 l/m 0 min 0 min 0 W/m 16,1 km/h (3 Bft) 100,00 %
23.01.2019 05:16 -2,2 C -2,2 C -3,3 C 93 % 996,1 hPa 0,0 l/m 0 min 0 min 0 W/m 16,1 km/h (3 Bft) 100,00 %
23.01.2019 05:14 -2,2 C -2,2 C -3,3 C 93 % 996,2 hPa 0,0 l/m 0 min 0 min 0 W/m 9,7 km/h (2 Bft) 96,00 %
23.01.2019 05:12 -2,2 C -2,2 C -3,3 C 93 % 996,2 hPa 0,0 l/m 0 min 0 min 0 W/m 12,9 km/h (3 Bft) 100,00 %
23.01.2019 05:05 -2,2 C -2,2 C -3,3 C 93 % 996,2 hPa 0,0 l/m 0 min 0 min 0 W/m 16,1 km/h (3 Bft) 98,25 %
23.01.2019 05:04 -2,2 C -2,2 C -3,3 C 94 % 996,2 hPa 0,0 l/m 0 min 0 min 0 W/m 16,1 km/h (3 Bft) 95,65 %
23.01.2019 05:02 -2,2 C -2,2 C -3,3 C 94 % 996,2 hPa 0,0 l/m 0 min 0 min 0 W/m 12,9 km/h (3 Bft) 95,74 %
23.01.2019 05:00 -2,2 C -2,2 C -3,3 C 94 % 996,2 hPa 0,0 l/m 0 min 0 min 0 W/m 12,9 km/h (3 Bft) 97,87 %
23.01.2019 04:58 -2,2 C -2,2 C -2,8 C 94 % 996,2 hPa 0,0 l/m 0 min 0 min 0 W/m 12,9 km/h (3 Bft) 95,74 %
23.01.2019 04:56 -2,2 C -2,2 C -2,8 C 94 % 996,3 hPa 0,0 l/m 0 min 0 min 0 W/m 22,5 km/h (4 Bft) 95,74 %
23.01.2019 04:54 -2,2 C -2,2 C -2,8 C 94 % 996,3 hPa 0,0 l/m 0 min 0 min 0 W/m 16,1 km/h (3 Bft) 95,74 %
23.01.2019 04:52 -2,2 C -2,2 C -2,8 C 94 % 996,3 hPa 0,0 l/m 0 min 0 min 0 W/m 22,5 km/h (4 Bft) 95,65 %
23.01.2019 04:50 -2,2 C -2,2 C -2,8 C 94 % 996,3 hPa 0,0 l/m 0 min 0 min 0 W/m 22,5 km/h (4 Bft) 97,87 %
23.01.2019 04:48 -2,2 C -2,2 C -2,8 C 94 % 996,3 hPa 0,0 l/m 0 min 0 min 0 W/m 22,5 km/h (4 Bft) 95,74 %
23.01.2019 04:46 -2,2 C -2,2 C -2,8 C 94 % 996,4 hPa 0,0 l/m 0 min 0 min 0 W/m 22,5 km/h (4 Bft) 95,74 %
23.01.2019 04:44 -2,2 C -2,2 C -2,8 C 94 % 996,4 hPa 0,0 l/m 0 min 0 min 0 W/m 19,3 km/h (3 Bft) 95,74 %
23.01.2019 04:42 -2,2 C -2,2 C -2,8 C 94 % 996,3 hPa 0,0 l/m 0 min 0 min 0 W/m 25,7 km/h (4 Bft) 97,87 %
23.01.2019 04:40 -2,2 C -2,2 C -2,8 C 94 % 996,4 hPa 0,0 l/m 0 min 0 min 0 W/m 16,1 km/h (3 Bft) 95,65 %
23.01.2019 04:38 -2,2 C -2,2 C -2,8 C 94 % 996,4 hPa 0,0 l/m 0 min 0 min 0 W/m 16,1 km/h (3 Bft) 95,74 %
23.01.2019 04:36 -2,2 C -2,2 C -2,8 C 94 % 996,4 hPa 0,0 l/m 0 min 0 min 0 W/m 12,9 km/h (3 Bft) 95,74 %
23.01.2019 04:34 -2,2 C -2,2 C -2,8 C 94 % 996,4 hPa 0,0 l/m 0 min 0 min 0 W/m 9,7 km/h (2 Bft) 93,62 %
23.01.2019 04:32 -2,2 C -2,2 C -2,8 C 94 % 996,5 hPa 0,0 l/m 0 min 0 min 0 W/m 16,1 km/h (3 Bft) 95,92 %
23.01.2019 04:30 -2,2 C -2,2 C -2,8 C 94 % 996,5 hPa 0,0 l/m 0 min 0 min 0 W/m 16,1 km/h (3 Bft) 95,74 %
23.01.2019 04:28 -2,2 C -2,2 C -2,8 C 94 % 996,5 hPa 0,0 l/m 0 min 0 min 0 W/m 19,3 km/h (3 Bft) 95,65 %
23.01.2019 04:26 -2,2 C -2,2 C -2,8 C 94 % 996,5 hPa 0,0 l/m 0 min 0 min 0 W/m 16,1 km/h (3 Bft) 95,74 %
23.01.2019 04:24 -2,2 C -2,2 C -2,8 C 94 % 996,5 hPa 0,0 l/m 0 min 0 min 0 W/m 16,1 km/h (3 Bft) 95,74 %
23.01.2019 04:22 -2,2 C -2,2 C -2,8 C 94 % 996,5 hPa 0,0 l/m 0 min 0 min 0 W/m 12,9 km/h (3 Bft) 97,87 %
23.01.2019 04:20 -2,2 C -2,2 C -2,8 C 94 % 996,6 hPa 0,0 l/m 0 min 0 min 0 W/m 19,3 km/h (3 Bft) 97,87 %
23.01.2019 04:18 -2,2 C -2,2 C -2,8 C 94 % 996,6 hPa 0,0 l/m 0 min 0 min 0 W/m 16,1 km/h (3 Bft) 97,87 %
23.01.2019 04:16 -2,2 C -2,2 C -2,8 C 94 % 996,6 hPa 0,0 l/m 0 min 0 min 0 W/m 16,1 km/h (3 Bft) 97,83 %
23.01.2019 04:14 -2,2 C -2,2 C -2,8 C 94 % 996,6 hPa 0,0 l/m 0 min 0 min 0 W/m 12,9 km/h (3 Bft) 95,74 %
23.01.2019 04:12 -2,2 C -2,2 C -2,8 C 94 % 996,6 hPa 0,0 l/m 0 min 0 min 0 W/m 12,9 km/h (3 Bft) 97,87 %
23.01.2019 04:10 -2,2 C -2,2 C -2,8 C 94 % 996,7 hPa 0,0 l/m 0 min 0 min 0 W/m 16,1 km/h (3 Bft) 97,87 %
23.01.2019 04:08 -2,2 C -2,2 C -2,8 C 94 % 996,7 hPa 0,0 l/m 0 min 0 min 0 W/m 9,7 km/h (2 Bft) 93,62 %
23.01.2019 04:06 -2,2 C -2,2 C -2,8 C 95 % 996,7 hPa 0,0 l/m 0 min 0 min 0 W/m 16,1 km/h (3 Bft) 97,83 %
23.01.2019 04:04 -2,2 C -2,2 C -2,8 C 95 % 996,7 hPa 0,0 l/m 0 min 0 min 0 W/m 16,1 km/h (3 Bft) 100,00 %
23.01.2019 04:02 -2,2 C -2,2 C -2,8 C 95 % 996,7 hPa 0,0 l/m 0 min 0 min 0 W/m 6,4 km/h (2 Bft) 100,00 %
23.01.2019 04:00 -2,2 C -2,2 C -2,8 C 95 % 996,6 hPa 0,0 l/m 0 min 0 min 0 W/m 12,9 km/h (3 Bft) 95,74 %
23.01.2019 03:58 -2,2 C -2,2 C -2,8 C 95 % 996,7 hPa 0,0 l/m 0 min 0 min 0 W/m 16,1 km/h (3 Bft) 97,87 %
23.01.2019 03:56 -2,2 C -2,2 C -2,8 C 95 % 996,7 hPa 0,0 l/m 0 min 0 min 0 W/m 16,1 km/h (3 Bft) 97,87 %
23.01.2019 03:54 -2,2 C -2,2 C -2,8 C 95 % 996,7 hPa 0,0 l/m 0 min 0 min 0 W/m 9,7 km/h (2 Bft) 100,00 %
23.01.2019 03:52 -2,2 C -2,2 C -2,8 C 95 % 996,7 hPa 0,0 l/m 0 min 0 min 0 W/m 9,7 km/h (2 Bft) 100,00 %
23.01.2019 03:50 -2,3 C -2,2 C -2,8 C 95 % 996,8 hPa 0,0 l/m 0 min 0 min 0 W/m 22,5 km/h (4 Bft) 97,87 %
23.01.2019 03:48 -2,3 C -2,2 C -2,8 C 95 % 996,8 hPa 0,0 l/m 0 min 0 min 0 W/m 12,9 km/h (3 Bft) 97,87 %
23.01.2019 03:46 -2,3 C -2,2 C -2,8 C 95 % 996,8 hPa 0,0 l/m 0 min 0 min 0 W/m 12,9 km/h (3 Bft) 97,87 %
23.01.2019 03:44 -2,3 C -2,2 C -2,8 C 95 % 996,9 hPa 0,0 l/m 0 min 0 min 0 W/m 9,7 km/h (2 Bft) 93,62 %
23.01.2019 03:42 -2,3 C -2,2 C -2,8 C 95 % 996,9 hPa 0,0 l/m 0 min 0 min 0 W/m 12,9 km/h (3 Bft) 97,83 %
23.01.2019 03:40 -2,3 C -2,2 C -2,8 C 95 % 996,9 hPa 0,0 l/m 0 min 0 min 0 W/m 16,1 km/h (3 Bft) 97,87 %
23.01.2019 03:38 -2,3 C -2,2 C -2,8 C 95 % 997,0 hPa 0,0 l/m 0 min 0 min 0 W/m 16,1 km/h (3 Bft) 97,87 %
23.01.2019 03:36 -2,3 C -2,2 C -2,8 C 95 % 996,9 hPa 0,0 l/m 0 min 0 min 0 W/m 25,7 km/h (4 Bft) 97,87 %
23.01.2019 03:34 -2,3 C -2,2 C -2,8 C 95 % 997,0 hPa 0,0 l/m 0 min 0 min 0 W/m 16,1 km/h (3 Bft) 95,74 %
23.01.2019 03:32 -2,3 C -2,2 C -2,8 C 95 % 997,0 hPa 0,0 l/m 0 min 0 min 0 W/m 16,1 km/h (3 Bft) 97,87 %
23.01.2019 03:30 -2,3 C -2,2 C -2,8 C 95 % 997,0 hPa 0,0 l/m 0 min 0 min 0 W/m 22,5 km/h (4 Bft) 97,83 %
23.01.2019 03:28 -2,3 C -2,2 C -2,8 C 95 % 997,0 hPa 0,0 l/m 0 min 0 min 0 W/m 16,1 km/h (3 Bft) 97,87 %
23.01.2019 03:26 -2,3 C -2,2 C -2,8 C 95 % 997,0 hPa 0,0 l/m 0 min 0 min 0 W/m 25,7 km/h (4 Bft) 95,74 %
23.01.2019 03:24 -2,3 C -2,2 C -2,8 C 95 % 997,1 hPa 0,0 l/m 0 min 0 min 0 W/m 19,3 km/h (3 Bft) 97,87 %
23.01.2019 03:22 -2,3 C -2,2 C -2,8 C 95 % 997,1 hPa 0,0 l/m 0 min 0 min 0 W/m 12,9 km/h (3 Bft) 97,87 %
23.01.2019 03:20 -2,3 C -2,2 C -2,8 C 95 % 997,1 hPa 0,0 l/m 0 min 0 min 0 W/m 19,3 km/h (3 Bft) 100,00 %
23.01.2019 03:18 -2,3 C -2,2 C -2,8 C 95 % 997,1 hPa 0,0 l/m 0 min 0 min 0 W/m 12,9 km/h (3 Bft) 91,43 %
23.01.2019 03:16 -2,3 C -2,2 C -2,8 C 95 % 997,2 hPa 0,0 l/m 0 min 0 min 0 W/m 22,5 km/h (4 Bft) 95,74 %
23.01.2019 03:14 -2,3 C -2,2 C -2,8 C 95 % 997,2 hPa 0,0 l/m 0 min 0 min 0 W/m 22,5 km/h (4 Bft) 97,87 %
23.01.2019 03:12 -2,3 C -2,2 C -2,8 C 95 % 997,2 hPa 0,0 l/m 0 min 0 min 0 W/m 22,5 km/h (4 Bft) 97,87 %
23.01.2019 03:10 -2,3 C -2,2 C -2,8 C 95 % 997,2 hPa 0,0 l/m 0 min 0 min 0 W/m 22,5 km/h (4 Bft) 95,74 %
23.01.2019 03:08 -2,3 C -2,2 C -2,8 C 95 % 997,2 hPa 0,0 l/m 0 min 0 min 0 W/m 12,9 km/h (3 Bft) 97,83 %
23.01.2019 03:06 -2,3 C -2,2 C -2,8 C 95 % 997,2 hPa 0,0 l/m 0 min 0 min 0 W/m 22,5 km/h (4 Bft) 97,87 %
23.01.2019 03:04 -2,3 C -2,2 C -2,8 C 95 % 997,2 hPa 0,0 l/m 0 min 0 min 0 W/m 16,1 km/h (3 Bft) 93,62 %
23.01.2019 03:02 -2,3 C -2,2 C -2,8 C 95 % 997,2 hPa 0,0 l/m 0 min 0 min 0 W/m 22,5 km/h (4 Bft) 100,00 %
23.01.2019 03:00 -2,3 C -2,2 C -2,8 C 95 % 997,3 hPa 0,0 l/m 0 min 0 min 0 W/m 19,3 km/h (3 Bft) 97,87 %
23.01.2019 02:58 -2,3 C -2,2 C -2,8 C 95 % 997,3 hPa 0,0 l/m 0 min 0 min 0 W/m 19,3 km/h (3 Bft) 100,00 %
23.01.2019 02:56 -2,3 C -2,2 C -2,8 C 95 % 997,3 hPa 0,0 l/m 0 min 0 min 0 W/m 25,7 km/h (4 Bft) 100,00 %
23.01.2019 02:54 -2,3 C -2,2 C -2,8 C 96 % 997,3 hPa 0,0 l/m 0 min 0 min 0 W/m 35,4 km/h (5 Bft) 100,00 %
23.01.2019 02:52 -2,3 C -2,2 C -2,8 C 96 % 997,3 hPa 0,0 l/m 0 min 0 min 0 W/m 25,7 km/h (4 Bft) 100,00 %
23.01.2019 02:50 -2,3 C -2,2 C -2,8 C 96 % 997,3 hPa 0,0 l/m 0 min 0 min 0 W/m 19,3 km/h (3 Bft) 100,00 %
23.01.2019 02:48 -2,3 C -2,2 C -2,8 C 96 % 997,3 hPa 0,0 l/m 0 min 0 min 0 W/m 16,1 km/h (3 Bft) 97,87 %
23.01.2019 02:46 -2,3 C -2,2 C -2,8 C 96 % 997,3 hPa 0,0 l/m 0 min 0 min 0 W/m 12,9 km/h (3 Bft) 100,00 %
23.01.2019 02:44 -2,3 C -2,2 C -2,8 C 96 % 997,3 hPa 0,0 l/m 0 min 0 min 0 W/m 12,9 km/h (3 Bft) 97,83 %
23.01.2019 02:42 -2,3 C -2,2 C -2,8 C 96 % 997,3 hPa 0,0 l/m 0 min 0 min 0 W/m 22,5 km/h (4 Bft) 100,00 %
23.01.2019 02:40 -2,3 C -2,2 C -2,8 C 96 % 997,4 hPa 0,0 l/m 0 min 0 min 0 W/m 12,9 km/h (3 Bft) 100,00 %
23.01.2019 02:38 -2,3 C -2,2 C -2,8 C 96 % 997,4 hPa 0,0 l/m 0 min 0 min 0 W/m 12,9 km/h (3 Bft) 100,00 %
23.01.2019 02:36 -2,3 C -2,2 C -2,8 C 96 % 997,5 hPa 0,0 l/m 0 min 0 min 0 W/m 16,1 km/h (3 Bft) 97,87 %
23.01.2019 02:34 -2,3 C -2,2 C -2,8 C 96 % 997,4 hPa 0,0 l/m 0 min 0 min 0 W/m 22,5 km/h (4 Bft) 97,87 %
23.01.2019 02:32 -2,3 C -2,2 C -2,8 C 96 % 997,3 hPa 0,0 l/m 0 min 0 min 0 W/m 16,1 km/h (3 Bft) 97,83 %
23.01.2019 02:30 -2,3 C -2,2 C -2,8 C 96 % 997,4 hPa 0,0 l/m 0 min 0 min 0 W/m 16,1 km/h (3 Bft) 97,87 %
23.01.2019 02:28 -2,3 C -2,2 C -2,8 C 96 % 997,4 hPa 0,0 l/m 0 min 0 min 0 W/m 25,7 km/h (4 Bft) 97,87 %
23.01.2019 02:26 -2,3 C -2,2 C -2,8 C 96 % 997,4 hPa 0,0 l/m 0 min 0 min 0 W/m 22,5 km/h (4 Bft) 97,87 %
23.01.2019 02:24 -2,3 C -2,2 C -2,8 C 96 % 997,4 hPa 0,0 l/m 0 min 0 min 0 W/m 19,3 km/h (3 Bft) 97,87 %
23.01.2019 02:22 -2,3 C -2,2 C -2,8 C 96 % 997,4 hPa 0,0 l/m 0 min 0 min 0 W/m 12,9 km/h (3 Bft) 97,83 %
23.01.2019 02:20 -2,3 C -2,2 C -2,8 C 96 % 997,5 hPa 0,0 l/m 0 min 0 min 0 W/m 16,1 km/h (3 Bft) 95,74 %
23.01.2019 02:18 -2,3 C -2,2 C -2,8 C 96 % 997,5 hPa 0,0 l/m 0 min 0 min 0 W/m 22,5 km/h (4 Bft) 97,87 %
23.01.2019 02:16 -2,4 C -2,2 C -2,8 C 96 % 997,4 hPa 0,0 l/m 0 min 0 min 0 W/m 25,7 km/h (4 Bft) 97,87 %
23.01.2019 02:14 -2,4 C -2,2 C -2,8 C 96 % 997,5 hPa 0,0 l/m 0 min 0 min 0 W/m 12,9 km/h (3 Bft) 97,87 %
23.01.2019 02:12 -2,4 C -2,2 C -2,8 C 96 % 997,5 hPa 0,0 l/m 0 min 0 min 0 W/m 22,5 km/h (4 Bft) 97,87 %
23.01.2019 02:10 -2,4 C -2,2 C -2,8 C 96 % 997,4 hPa 0,0 l/m 0 min 0 min 0 W/m 29,0 km/h (5 Bft) 97,83 %
23.01.2019 02:08 -2,4 C -2,2 C -3,3 C 96 % 997,4 hPa 0,0 l/m 0 min 0 min 0 W/m 12,9 km/h (3 Bft) 97,87 %
23.01.2019 02:06 -2,4 C -2,2 C -2,8 C 96 % 997,4 hPa 0,0 l/m 0 min 0 min 0 W/m 22,5 km/h (4 Bft) 95,74 %
23.01.2019 02:04 -2,4 C -2,2 C -2,8 C 96 % 997,5 hPa 0,0 l/m 0 min 0 min 0 W/m 16,1 km/h (3 Bft) 97,87 %
23.01.2019 02:02 -2,4 C -2,2 C -2,8 C 96 % 997,6 hPa 0,0 l/m 0 min 0 min 0 W/m 25,7 km/h (4 Bft) 97,87 %
23.01.2019 02:00 -2,4 C -2,8 C -3,3 C 96 % 997,6 hPa 0,0 l/m 0 min 0 min 0 W/m 25,7 km/h (4 Bft) 97,87 %
23.01.2019 01:58 -2,4 C -2,8 C -3,3 C 96 % 997,6 hPa 0,0 l/m 0 min 0 min 0 W/m 16,1 km/h (3 Bft) 93,48 %
23.01.2019 01:56 -2,4 C -2,8 C -3,3 C 96 % 997,6 hPa 0,0 l/m 0 min 0 min 0 W/m 16,1 km/h (3 Bft) 97,87 %
23.01.2019 01:54 -2,4 C -2,8 C -3,3 C 96 % 997,6 hPa 0,0 l/m 0 min 0 min 0 W/m 19,3 km/h (3 Bft) 97,87 %
23.01.2019 01:52 -2,4 C -2,8 C -3,3 C 96 % 997,6 hPa 0,0 l/m 0 min 0 min 0 W/m 25,7 km/h (4 Bft) 100,00 %
23.01.2019 01:50 -2,4 C -2,8 C -3,3 C 96 % 997,6 hPa 0,0 l/m 0 min 0 min 0 W/m 16,1 km/h (3 Bft) 97,87 %
23.01.2019 01:48 -2,4 C -2,8 C -3,3 C 96 % 997,6 hPa 0,0 l/m 0 min 0 min 0 W/m 16,1 km/h (3 Bft) 97,87 %
23.01.2019 01:46 -2,4 C -2,8 C -3,3 C 96 % 997,7 hPa 0,0 l/m 0 min 0 min 0 W/m 19,3 km/h (3 Bft) 100,00 %
23.01.2019 01:44 -2,4 C -2,8 C -3,3 C 96 % 997,7 hPa 0,0 l/m 0 min 0 min 0 W/m 32,2 km/h (5 Bft) 100,00 %
23.01.2019 01:42 -2,5 C -2,8 C -3,3 C 96 % 997,7 hPa 0,0 l/m 0 min 0 min 0 W/m 19,3 km/h (3 Bft) 97,87 %
23.01.2019 01:40 -2,5 C -2,8 C -3,3 C 96 % 997,7 hPa 0,0 l/m 0 min 0 min 0 W/m 25,7 km/h (4 Bft) 97,87 %
23.01.2019 01:38 -2,5 C -2,8 C -3,3 C 96 % 997,7 hPa 0,0 l/m 0 min 0 min 0 W/m 25,7 km/h (4 Bft) 97,87 %
23.01.2019 01:36 -2,5 C -2,8 C -3,3 C 96 % 997,7 hPa 0,0 l/m 0 min 0 min 0 W/m 25,7 km/h (4 Bft) 95,65 %
23.01.2019 01:34 -2,5 C -2,8 C -3,3 C 96 % 997,7 hPa 0,0 l/m 0 min 0 min 0 W/m 19,3 km/h (3 Bft) 100,00 %
23.01.2019 01:32 -2,5 C -2,8 C -3,3 C 96 % 997,7 hPa 0,0 l/m 0 min 0 min 0 W/m 29,0 km/h (5 Bft) 100,00 %
23.01.2019 01:30 -2,5 C -2,8 C -3,3 C 96 % 997,8 hPa 0,0 l/m 0 min 0 min 0 W/m 16,1 km/h (3 Bft) 97,96 %
23.01.2019 01:28 -2,5 C -2,8 C -3,3 C 96 % 997,8 hPa 0,0 l/m 0 min 0 min 0 W/m 22,5 km/h (4 Bft) 100,00 %
23.01.2019 01:26 -2,5 C -2,8 C -3,3 C 96 % 997,9 hPa 0,0 l/m 0 min 0 min 0 W/m 19,3 km/h (3 Bft) 100,00 %
23.01.2019 01:24 -2,5 C -2,8 C -3,3 C 96 % 997,9 hPa 0,0 l/m 0 min 0 min 0 W/m 12,9 km/h (3 Bft) 100,00 %
23.01.2019 01:22 -2,5 C -2,8 C -3,3 C 96 % 997,8 hPa 0,0 l/m 0 min 0 min 0 W/m 16,1 km/h (3 Bft) 100,00 %
23.01.2019 01:20 -2,6 C -2,8 C -3,3 C 96 % 997,8 hPa 0,0 l/m 0 min 0 min 0 W/m 22,5 km/h (4 Bft) 97,87 %
23.01.2019 01:18 -2,5 C -2,8 C -3,3 C 96 % 997,9 hPa 0,0 l/m 0 min 0 min 0 W/m 19,3 km/h (3 Bft) 97,87 %
23.01.2019 01:16 -2,6 C -2,8 C -3,3 C 96 % 997,9 hPa 0,0 l/m 0 min 0 min 0 W/m 19,3 km/h (3 Bft) 100,00 %
23.01.2019 01:14 -2,6 C -2,8 C -3,3 C 96 % 997,9 hPa 0,0 l/m 0 min 0 min 0 W/m 12,9 km/h (3 Bft) 100,00 %
23.01.2019 01:12 -2,6 C -2,8 C -3,3 C 96 % 998,0 hPa 0,0 l/m 0 min 0 min 0 W/m 16,1 km/h (3 Bft) 100,00 %
23.01.2019 01:10 -2,6 C -2,8 C -3,3 C 96 % 998,0 hPa 0,0 l/m 0 min 0 min 0 W/m 16,1 km/h (3 Bft) 97,87 %
23.01.2019 01:08 -2,6 C -2,8 C -3,3 C 96 % 998,0 hPa 0,0 l/m 0 min 0 min 0 W/m 12,9 km/h (3 Bft) 93,62 %
23.01.2019 01:06 -2,6 C -2,8 C -3,3 C 96 % 998,1 hPa 0,0 l/m 0 min 0 min 0 W/m 22,5 km/h (4 Bft) 95,74 %
23.01.2019 01:04 -2,6 C -2,8 C -3,3 C 96 % 998,1 hPa 0,0 l/m 0 min 0 min 0 W/m 22,5 km/h (4 Bft) 95,74 %
23.01.2019 01:02 -2,6 C -2,8 C -3,3 C 96 % 998,1 hPa 0,0 l/m 0 min 0 min 0 W/m 16,1 km/h (3 Bft) 91,49 %
23.01.2019 01:00 -2,6 C -2,8 C -3,3 C 96 % 998,1 hPa 0,0 l/m 0 min 0 min 0 W/m 16,1 km/h (3 Bft) 95,65 %
23.01.2019 00:58 -2,6 C -2,8 C -3,3 C 96 % 998,2 hPa 0,0 l/m 0 min 0 min 0 W/m 9,7 km/h (2 Bft) 100,00 %
23.01.2019 00:56 -2,6 C -2,8 C -3,3 C 97 % 998,2 hPa 0,0 l/m 0 min 0 min 0 W/m 12,9 km/h (3 Bft) 95,74 %
23.01.2019 00:54 -2,6 C -2,8 C -3,3 C 97 % 998,2 hPa 0,0 l/m 0 min 0 min 0 W/m 22,5 km/h (4 Bft) 95,74 %
23.01.2019 00:52 -2,6 C -2,8 C -3,3 C 97 % 998,2 hPa 0,0 l/m 0 min 0 min 0 W/m 19,3 km/h (3 Bft) 93,62 %
23.01.2019 00:50 -2,6 C -2,8 C -3,3 C 97 % 998,2 hPa 0,0 l/m 0 min 0 min 0 W/m 16,1 km/h (3 Bft) 95,74 %
23.01.2019 00:48 -2,6 C -2,8 C -3,3 C 97 % 998,2 hPa 0,0 l/m 0 min 0 min 0 W/m 16,1 km/h (3 Bft) 95,65 %
23.01.2019 00:46 -2,6 C -2,8 C -3,3 C 97 % 998,3 hPa 0,0 l/m 0 min 0 min 0 W/m 16,1 km/h (3 Bft) 97,87 %
23.01.2019 00:44 -2,6 C -2,8 C -3,3 C 97 % 998,3 hPa 0,0 l/m 0 min 0 min 0 W/m 16,1 km/h (3 Bft) 95,74 %
23.01.2019 00:42 -2,6 C -2,8 C -3,3 C 97 % 998,3 hPa 0,0 l/m 0 min 0 min 0 W/m 12,9 km/h (3 Bft) 95,74 %
23.01.2019 00:40 -2,6 C -2,8 C -3,3 C 97 % 998,4 hPa 0,0 l/m 0 min 0 min 0 W/m 9,7 km/h (2 Bft) 93,62 %
23.01.2019 00:38 -2,6 C -2,8 C -3,3 C 97 % 998,4 hPa 0,0 l/m 0 min 0 min 0 W/m 12,9 km/h (3 Bft) 95,65 %
23.01.2019 00:36 -2,6 C -2,8 C -3,3 C 97 % 998,5 hPa 0,0 l/m 0 min 0 min 0 W/m 16,1 km/h (3 Bft) 93,62 %
23.01.2019 00:34 -2,6 C -2,8 C -3,3 C 97 % 998,5 hPa 0,0 l/m 0 min 0 min 0 W/m 25,7 km/h (4 Bft) 93,62 %
23.01.2019 00:32 -2,6 C -2,8 C -3,3 C 97 % 998,5 hPa 0,0 l/m 0 min 0 min 0 W/m 22,5 km/h (4 Bft) 95,74 %
23.01.2019 00:30 -2,6 C -2,8 C -3,3 C 97 % 998,5 hPa 0,0 l/m 0 min 0 min 0 W/m 16,1 km/h (3 Bft) 95,74 %
23.01.2019 00:28 -2,6 C -2,8 C -3,3 C 97 % 998,6 hPa 0,0 l/m 0 min 0 min 0 W/m 22,5 km/h (4 Bft) 97,87 %
23.01.2019 00:26 -2,6 C -2,8 C -3,3 C 97 % 998,5 hPa 0,0 l/m 0 min 0 min 0 W/m 25,7 km/h (4 Bft) 95,65 %
23.01.2019 00:24 -2,6 C -2,8 C -3,3 C 97 % 998,6 hPa 0,0 l/m 0 min 0 min 0 W/m 16,1 km/h (3 Bft) 95,74 %
23.01.2019 00:22 -2,6 C -2,8 C -3,3 C 96 % 998,6 hPa 0,0 l/m 0 min 0 min 0 W/m 19,3 km/h (3 Bft) 95,74 %
23.01.2019 00:20 -2,6 C -2,8 C -3,3 C 96 % 998,6 hPa 0,0 l/m 0 min 0 min 0 W/m 16,1 km/h (3 Bft) 95,74 %
23.01.2019 00:18 -2,6 C -2,8 C -3,3 C 97 % 998,7 hPa 0,0 l/m 0 min 0 min 0 W/m 16,1 km/h (3 Bft) 100,00 %
23.01.2019 00:16 -2,6 C -2,8 C -3,3 C 96 % 998,7 hPa 0,0 l/m 0 min 0 min 0 W/m 22,5 km/h (4 Bft) 97,87 %
23.01.2019 00:14 -2,6 C -2,8 C -3,3 C 96 % 998,7 hPa 0,0 l/m 0 min 0 min 0 W/m 19,3 km/h (3 Bft) 97,83 %
23.01.2019 00:12 -2,6 C -2,8 C -3,3 C 96 % 998,7 hPa 0,0 l/m 0 min 0 min 0 W/m 22,5 km/h (4 Bft) 93,62 %
23.01.2019 00:10 -2,6 C -2,8 C -3,3 C 97 % 998,7 hPa 0,0 l/m 0 min 0 min 0 W/m 16,1 km/h (3 Bft) 97,87 %
23.01.2019 00:08 -2,6 C -2,8 C -3,3 C 96 % 998,7 hPa 0,0 l/m 0 min 0 min 0 W/m 16,1 km/h (3 Bft) 96,81 %
23.01.2019 00:04 -2,6 C -2,8 C -3,3 C 96 % 998,8 hPa 0,0 l/m 0 min 0 min 0 W/m 19,3 km/h (3 Bft) 97,87 %
23.01.2019 00:02 -2,6 C -2,8 C -3,3 C 96 % 998,8 hPa 0,0 l/m 0 min 0 min 0 W/m 12,9 km/h (3 Bft) 94,74 %
23.01.2019 00:00 -2,6 C -2,8 C -3,3 C 96 % 998,8 hPa 0,0 l/m 0 min 0 min 0 W/m 22,5 km/h (4 Bft) 100,00 %
22.01.2019 23:58 -2,6 C -2,8 C -3,3 C 96 % 998,8 hPa 0,0 l/m 0 min 0 min 0 W/m 12,9 km/h (3 Bft) 97,87 %
22.01.2019 23:56 -2,6 C -2,8 C -3,3 C 96 % 998,8 hPa 0,0 l/m 0 min 0 min 0 W/m 16,1 km/h (3 Bft) 95,74 %
22.01.2019 23:54 -2,6 C -2,8 C -3,3 C 96 % 998,8 hPa 0,0 l/m 0 min 0 min 0 W/m 19,3 km/h (3 Bft) 97,87 %
22.01.2019 23:52 -2,6 C -2,8 C -3,3 C 96 % 998,8 hPa 0,0 l/m 0 min 0 min 0 W/m 22,5 km/h (4 Bft) 97,83 %
22.01.2019 23:50 -2,6 C -2,8 C -3,3 C 96 % 998,8 hPa 0,0 l/m 0 min 0 min 0 W/m 22,5 km/h (4 Bft) 97,87 %
22.01.2019 23:48 -2,6 C -2,8 C -3,3 C 96 % 998,8 hPa 0,0 l/m 0 min 0 min 0 W/m 12,9 km/h (3 Bft) 97,87 %
22.01.2019 23:46 -2,6 C -2,8 C -3,3 C 96 % 998,8 hPa 0,0 l/m 0 min 0 min 0 W/m 16,1 km/h (3 Bft) 95,16 %
22.01.2019 23:44 -2,6 C -2,8 C -3,3 C 96 % 998,8 hPa 0,0 l/m 0 min 0 min 0 W/m 16,1 km/h (3 Bft) 100,00 %
22.01.2019 23:42 -2,6 C -2,8 C -3,3 C 96 % 998,9 hPa 0,0 l/m 0 min 0 min 0 W/m 19,3 km/h (3 Bft) 97,87 %
22.01.2019 23:40 -2,7 C -2,8 C -3,3 C 96 % 998,9 hPa 0,0 l/m 0 min 0 min 0 W/m 16,1 km/h (3 Bft) 97,83 %
22.01.2019 23:38 -2,6 C -2,8 C -3,3 C 96 % 999,0 hPa 0,0 l/m 0 min 0 min 0 W/m 19,3 km/h (3 Bft) 94,44 %
22.01.2019 23:36 -2,6 C -2,8 C -3,3 C 96 % 998,9 hPa 0,0 l/m 0 min 0 min 0 W/m 22,5 km/h (4 Bft) 91,38 %
22.01.2019 23:34 -2,6 C -2,8 C -3,3 C 96 % 999,0 hPa 0,0 l/m 0 min 0 min 0 W/m 19,3 km/h (3 Bft) 97,87 %
22.01.2019 23:32 -2,6 C -2,8 C -3,3 C 96 % 999,0 hPa 0,0 l/m 0 min 0 min 0 W/m 22,5 km/h (4 Bft) 97,87 %
22.01.2019 23:30 -2,6 C -2,8 C -3,3 C 96 % 999,1 hPa 0,0 l/m 0 min 0 min 0 W/m 16,1 km/h (3 Bft) 95,74 %
22.01.2019 23:28 -2,6 C -2,8 C -3,3 C 96 % 999,1 hPa 0,0 l/m 0 min 0 min 0 W/m 25,7 km/h (4 Bft) 95,65 %
22.01.2019 23:26 -2,6 C -2,8 C -3,3 C 96 % 999,1 hPa 0,0 l/m 0 min 0 min 0 W/m 19,3 km/h (3 Bft) 97,87 %
22.01.2019 23:24 -2,7 C -2,8 C -3,3 C 96 % 999,1 hPa 0,0 l/m 0 min 0 min 0 W/m 22,5 km/h (4 Bft) 97,87 %
22.01.2019 23:22 -2,6 C -2,8 C -3,3 C 96 % 999,1 hPa 0,0 l/m 0 min 0 min 0 W/m 29,0 km/h (5 Bft) 97,87 %
22.01.2019 23:20 -2,6 C -2,8 C -3,3 C 96 % 999,2 hPa 0,0 l/m 0 min 0 min 0 W/m 22,5 km/h (4 Bft) 95,74 %
22.01.2019 23:18 -2,6 C -2,8 C -3,3 C 96 % 999,2 hPa 0,0 l/m 0 min 0 min 0 W/m 29,0 km/h (5 Bft) 100,00 %
22.01.2019 23:16 -2,6 C -2,8 C -3,3 C 96 % 999,1 hPa 0,0 l/m 0 min 0 min 0 W/m 19,3 km/h (3 Bft) 100,00 %
22.01.2019 23:14 -2,6 C -2,8 C -3,3 C 96 % 999,0 hPa 0,0 l/m 0 min 0 min 0 W/m 16,1 km/h (3 Bft) 100,00 %
22.01.2019 23:12 -2,7 C -2,8 C -3,3 C 96 % 999,1 hPa 0,0 l/m 0 min 0 min 0 W/m 16,1 km/h (3 Bft) 95,74 %
22.01.2019 23:10 -2,6 C -2,8 C -3,3 C 96 % 999,0 hPa 0,0 l/m 0 min 0 min 0 W/m 22,5 km/h (4 Bft) 97,87 %
22.01.2019 23:08 -2,6 C -2,8 C -3,3 C 96 % 999,2 hPa 0,0 l/m 0 min 0 min 0 W/m 29,0 km/h (5 Bft) 100,00 %
22.01.2019 23:06 -2,6 C -2,8 C -3,3 C 96 % 999,1 hPa 0,0 l/m 0 min 0 min 0 W/m 22,5 km/h (4 Bft) 100,00 %
22.01.2019 23:04 -2,6 C -2,8 C -3,3 C 96 % 999,1 hPa 0,0 l/m 0 min 0 min 0 W/m 16,1 km/h (3 Bft) 100,00 %
22.01.2019 23:02 -2,7 C -2,8 C -3,3 C 96 % 999,2 hPa 0,0 l/m 0 min 0 min 0 W/m 16,1 km/h (3 Bft) 97,87 %
22.01.2019 23:00 -2,6 C -2,8 C -3,3 C 96 % 999,1 hPa 0,0 l/m 0 min 0 min 0 W/m 12,9 km/h (3 Bft) 100,00 %
22.01.2019 22:58 -2,6 C -2,8 C -3,3 C 96 % 999,2 hPa 0,0 l/m 0 min 0 min 0 W/m 16,1 km/h (3 Bft) 97,87 %
22.01.2019 22:56 -2,7 C -2,8 C -3,3 C 96 % 999,2 hPa 0,0 l/m 0 min 0 min 0 W/m 19,3 km/h (3 Bft) 100,00 %
22.01.2019 22:54 -2,7 C -2,8 C -3,3 C 96 % 999,2 hPa 0,0 l/m 0 min 0 min 0 W/m 16,1 km/h (3 Bft) 100,00 %
22.01.2019 22:52 -2,7 C -2,8 C -3,3 C 96 % 999,2 hPa 0,0 l/m 0 min 0 min 0 W/m 16,1 km/h (3 Bft) 100,00 %
22.01.2019 22:50 -2,6 C -2,8 C -3,3 C 96 % 999,2 hPa 0,0 l/m 0 min 0 min 0 W/m 16,1 km/h (3 Bft) 100,00 %
22.01.2019 22:48 -2,7 C -2,8 C -3,3 C 96 % 999,2 hPa 0,0 l/m 0 min 0 min 0 W/m 22,5 km/h (4 Bft) 100,00 %
22.01.2019 22:46 -2,7 C -2,8 C -3,3 C 96 % 999,2 hPa 0,0 l/m 0 min 0 min 0 W/m 25,7 km/h (4 Bft) 100,00 %
22.01.2019 22:44 -2,6 C -2,8 C -3,3 C 96 % 999,2 hPa 0,0 l/m 0 min 0 min 0 W/m 22,5 km/h (4 Bft) 100,00 %
22.01.2019 22:42 -2,6 C -2,8 C -3,3 C 96 % 999,2 hPa 0,0 l/m 0 min 0 min 0 W/m 22,5 km/h (4 Bft) 100,00 %
22.01.2019 22:40 -2,6 C -2,8 C -3,3 C 96 % 999,3 hPa 0,0 l/m 0 min 0 min 0 W/m 16,1 km/h (3 Bft) 100,00 %
22.01.2019 22:38 -2,6 C -2,8 C -3,3 C 96 % 999,3 hPa 0,0 l/m 0 min 0 min 0 W/m 22,5 km/h (4 Bft) 100,00 %
22.01.2019 22:36 -2,6 C -2,8 C -3,3 C 96 % 999,3 hPa 0,0 l/m 0 min 0 min 0 W/m 19,3 km/h (3 Bft) 98,31 %
22.01.2019 22:34 -2,6 C -2,8 C -3,3 C 96 % 999,3 hPa 0,0 l/m 0 min 0 min 0 W/m 19,3 km/h (3 Bft) 100,00 %
22.01.2019 22:32 -2,6 C -2,8 C -3,3 C 96 % 999,3 hPa 0,0 l/m 0 min 0 min 0 W/m 25,7 km/h (4 Bft) 100,00 %
22.01.2019 22:30 -2,6 C -2,8 C -3,3 C 96 % 999,3 hPa 0,0 l/m 0 min 0 min 0 W/m 19,3 km/h (3 Bft) 100,00 %
22.01.2019 22:28 -2,6 C -2,8 C -3,3 C 96 % 999,4 hPa 0,0 l/m 0 min 0 min 0 W/m 22,5 km/h (4 Bft) 97,87 %
22.01.2019 22:26 -2,6 C -2,8 C -3,3 C 96 % 999,4 hPa 0,0 l/m 0 min 0 min 0 W/m 19,3 km/h (3 Bft) 100,00 %
22.01.2019 22:24 -2,6 C -2,8 C -3,3 C 96 % 999,4 hPa 0,0 l/m 0 min 0 min 0 W/m 22,5 km/h (4 Bft) 100,00 %
22.01.2019 22:22 -2,6 C -2,8 C -3,3 C 96 % 999,4 hPa 0,0 l/m 0 min 0 min 0 W/m 22,5 km/h (4 Bft) 100,00 %
22.01.2019 22:20 -2,6 C -2,8 C -3,3 C 96 % 999,4 hPa 0,0 l/m 0 min 0 min 0 W/m 22,5 km/h (4 Bft) 97,87 %
22.01.2019 22:18 -2,6 C -2,8 C -3,3 C 96 % 999,4 hPa 0,0 l/m 0 min 0 min 0 W/m 16,1 km/h (3 Bft) 96,15 %
22.01.2019 22:16 -2,6 C -2,8 C -3,3 C 96 % 999,4 hPa 0,0 l/m 0 min 0 min 0 W/m 16,1 km/h (3 Bft) 97,56 %
22.01.2019 22:14 -2,6 C -2,8 C -3,3 C 96 % 999,5 hPa 0,0 l/m 0 min 0 min 0 W/m 25,7 km/h (4 Bft) 97,87 %
22.01.2019 22:12 -2,6 C -2,8 C -3,3 C 96 % 999,5 hPa 0,0 l/m 0 min 0 min 0 W/m 19,3 km/h (3 Bft) 97,87 %
22.01.2019 22:10 -2,6 C -2,8 C -3,3 C 96 % 999,5 hPa 0,0 l/m 0 min 0 min 0 W/m 29,0 km/h (5 Bft) 97,87 %
22.01.2019 22:08 -2,6 C -2,8 C -3,3 C 96 % 999,5 hPa 0,0 l/m 0 min 0 min 0 W/m 16,1 km/h (3 Bft) 97,14 %
22.01.2019 22:06 -2,6 C -2,8 C -3,3 C 96 % 999,5 hPa 0,0 l/m 0 min 0 min 0 W/m 16,1 km/h (3 Bft) 96,55 %
22.01.2019 22:04 -2,6 C -2,8 C -3,3 C 96 % 999,5 hPa 0,0 l/m 0 min 0 min 0 W/m 22,5 km/h (4 Bft) 96,23 %
22.01.2019 22:02 -2,6 C -2,8 C -3,3 C 96 % 999,5 hPa 0,0 l/m 0 min 0 min 0 W/m 19,3 km/h (3 Bft) 97,56 %
22.01.2019 22:00 -2,6 C -2,8 C -3,3 C 96 % 999,5 hPa 0,0 l/m 0 min 0 min 0 W/m 16,1 km/h (3 Bft) 97,87 %
22.01.2019 21:58 -2,6 C -2,8 C -3,3 C 96 % 999,5 hPa 0,0 l/m 0 min 0 min 0 W/m 29,0 km/h (5 Bft) 93,62 %
22.01.2019 21:56 -2,6 C -2,8 C -3,3 C 96 % 999,5 hPa 0,0 l/m 0 min 0 min 0 W/m 22,5 km/h (4 Bft) 97,83 %
22.01.2019 21:54 -2,6 C -2,8 C -3,3 C 96 % 999,5 hPa 0,0 l/m 0 min 0 min 0 W/m 19,3 km/h (3 Bft) 97,87 %
22.01.2019 21:52 -2,6 C -2,8 C -3,3 C 96 % 999,5 hPa 0,0 l/m 0 min 0 min 0 W/m 19,3 km/h (3 Bft) 97,87 %
22.01.2019 21:50 -2,6 C -2,8 C -3,3 C 96 % 999,5 hPa 0,0 l/m 0 min 0 min 0 W/m 29,0 km/h (5 Bft) 97,87 %
22.01.2019 21:48 -2,6 C -2,8 C -3,3 C 96 % 999,6 hPa 0,0 l/m 0 min 0 min 0 W/m 29,0 km/h (5 Bft) 97,87 %
22.01.2019 21:46 -2,5 C -2,8 C -3,3 C 96 % 999,6 hPa 0,0 l/m 0 min 0 min 0 W/m 22,5 km/h (4 Bft) 97,87 %
22.01.2019 21:44 -2,6 C -2,8 C -3,3 C 96 % 999,6 hPa 0,0 l/m 0 min 0 min 0 W/m 22,5 km/h (4 Bft) 97,83 %
22.01.2019 21:42 -2,5 C -2,8 C -3,3 C 96 % 999,7 hPa 0,0 l/m 0 min 0 min 0 W/m 16,1 km/h (3 Bft) 95,74 %
22.01.2019 21:40 -2,5 C -2,8 C -3,3 C 96 % 999,7 hPa 0,0 l/m 0 min 0 min 0 W/m 16,1 km/h (3 Bft) 97,87 %
22.01.2019 21:38 -2,5 C -2,8 C -3,3 C 96 % 999,7 hPa 0,0 l/m 0 min 0 min 0 W/m 16,1 km/h (3 Bft) 94,29 %
22.01.2019 21:36 -2,5 C -2,8 C -3,3 C 96 % 999,7 hPa 0,0 l/m 0 min 0 min 0 W/m 22,5 km/h (4 Bft) 94,92 %
22.01.2019 21:34 -2,5 C -2,8 C -3,3 C 96 % 999,8 hPa 0,0 l/m 0 min 0 min 0 W/m 16,1 km/h (3 Bft) 100,00 %
22.01.2019 21:32 -2,5 C -2,8 C -3,3 C 96 % 999,8 hPa 0,0 l/m 0 min 0 min 0 W/m 25,7 km/h (4 Bft) 97,83 %
22.01.2019 21:30 -2,5 C -2,8 C -3,3 C 96 % 999,8 hPa 0,0 l/m 0 min 0 min 0 W/m 22,5 km/h (4 Bft) 97,87 %
22.01.2019 21:28 -2,5 C -2,8 C -3,3 C 96 % 999,8 hPa 0,0 l/m 0 min 0 min 0 W/m 16,1 km/h (3 Bft) 95,74 %
22.01.2019 21:26 -2,5 C -2,8 C -3,3 C 96 % 999,8 hPa 0,0 l/m 0 min 0 min 0 W/m 16,1 km/h (3 Bft) 97,87 %
22.01.2019 21:24 -2,5 C -2,8 C -3,3 C 96 % 999,8 hPa 0,0 l/m 0 min 0 min 0 W/m 19,3 km/h (3 Bft) 97,87 %
22.01.2019 21:22 -2,5 C -2,8 C -3,3 C 96 % 999,8 hPa 0,0 l/m 0 min 0 min 0 W/m 19,3 km/h (3 Bft) 97,87 %
22.01.2019 21:20 -2,5 C -2,8 C -3,3 C 96 % 999,8 hPa 0,0 l/m 0 min 0 min 0 W/m 22,5 km/h (4 Bft) 97,83 %
22.01.2019 21:18 -2,5 C -2,8 C -3,3 C 96 % 999,9 hPa 0,0 l/m 0 min 0 min 0 W/m 29,0 km/h (5 Bft) 96,23 %
22.01.2019 21:16 -2,5 C -2,8 C -3,3 C 96 % 999,9 hPa 0,0 l/m 0 min 0 min 0 W/m 25,7 km/h (4 Bft) 95,12 %
22.01.2019 21:14 -2,5 C -2,8 C -3,3 C 96 % 999,9 hPa 0,0 l/m 0 min 0 min 0 W/m 16,1 km/h (3 Bft) 95,74 %
22.01.2019 21:12 -2,4 C -2,8 C -3,3 C 96 % 999,9 hPa 0,0 l/m 0 min 0 min 0 W/m 19,3 km/h (3 Bft) 93,62 %
22.01.2019 21:10 -2,4 C -2,8 C -3,3 C 96 % 999,9 hPa 0,0 l/m 0 min 0 min 0 W/m 22,5 km/h (4 Bft) 93,62 %
22.01.2019 21:08 -2,4 C -2,8 C -3,3 C 96 % 999,9 hPa 0,0 l/m 0 min 0 min 0 W/m 12,9 km/h (3 Bft) 94,29 %
22.01.2019 21:06 -2,4 C -2,8 C -3,3 C 96 % 999,9 hPa 0,0 l/m 0 min 0 min 0 W/m 19,3 km/h (3 Bft) 96,55 %
22.01.2019 21:04 -2,4 C -2,8 C -3,3 C 96 % 999,9 hPa 0,0 l/m 0 min 0 min 0 W/m 29,0 km/h (5 Bft) 95,74 %
22.01.2019 21:02 -2,4 C -2,8 C -3,3 C 96 % 999,9 hPa 0,0 l/m 0 min 0 min 0 W/m 29,0 km/h (5 Bft) 95,74 %
22.01.2019 21:00 -2,4 C -2,8 C -3,3 C 96 % 999,9 hPa 0,0 l/m 0 min 0 min 0 W/m 29,0 km/h (5 Bft) 95,74 %
22.01.2019 20:58 -2,4 C -2,8 C -3,3 C 96 % 1000,0 hPa 0,0 l/m 0 min 0 min 0 W/m 25,7 km/h (4 Bft) 95,65 %
22.01.2019 20:56 -2,4 C -2,8 C -3,3 C 96 % 1000,0 hPa 0,0 l/m 0 min 0 min 0 W/m 25,7 km/h (4 Bft) 93,62 %
22.01.2019 20:54 -2,4 C -2,8 C -3,3 C 96 % 1000,0 hPa 0,0 l/m 0 min 0 min 0 W/m 32,2 km/h (5 Bft) 95,74 %
22.01.2019 20:52 -2,4 C -2,8 C -3,3 C 96 % 1000,0 hPa 0,0 l/m 0 min 0 min 0 W/m 29,0 km/h (5 Bft) 93,62 %
22.01.2019 20:50 -2,4 C -2,8 C -3,3 C 96 % 1000,1 hPa 0,0 l/m 0 min 0 min 0 W/m 16,1 km/h (3 Bft) 97,87 %
22.01.2019 20:48 -2,4 C -2,8 C -3,3 C 96 % 1000,1 hPa 0,0 l/m 0 min 0 min 0 W/m 29,0 km/h (5 Bft) 97,87 %
22.01.2019 20:46 -2,4 C -2,8 C -3,3 C 96 % 1000,1 hPa 0,0 l/m 0 min 0 min 0 W/m 32,2 km/h (5 Bft) 91,30 %
22.01.2019 20:44 -2,3 C -2,8 C -3,3 C 96 % 1000,1 hPa 0,0 l/m 0 min 0 min 0 W/m 29,0 km/h (5 Bft) 95,74 %
22.01.2019 20:42 -2,3 C -2,8 C -3,3 C 96 % 1000,1 hPa 0,0 l/m 0 min 0 min 0 W/m 29,0 km/h (5 Bft) 95,74 %
22.01.2019 20:40 -2,3 C -2,8 C -3,3 C 96 % 1000,2 hPa 0,0 l/m 0 min 0 min 0 W/m 25,7 km/h (4 Bft) 97,87 %
22.01.2019 20:38 -2,3 C -2,8 C -3,3 C 96 % 1000,1 hPa 0,0 l/m 0 min 0 min 0 W/m 29,0 km/h (5 Bft) 100,00 %
22.01.2019 20:36 -2,3 C -2,8 C -3,3 C 96 % 1000,1 hPa 0,0 l/m 0 min 0 min 0 W/m 19,3 km/h (3 Bft) 94,92 %
22.01.2019 20:34 -2,3 C -2,8 C -3,3 C 96 % 1000,2 hPa 0,0 l/m 0 min 0 min 0 W/m 22,5 km/h (4 Bft) 95,65 %
22.01.2019 20:32 -2,3 C -2,8 C -3,3 C 96 % 1000,2 hPa 0,0 l/m 0 min 0 min 0 W/m 25,7 km/h (4 Bft) 97,87 %
22.01.2019 20:30 -2,3 C -2,8 C -3,3 C 96 % 1000,2 hPa 0,0 l/m 0 min 0 min 0 W/m 19,3 km/h (3 Bft) 97,87 %
22.01.2019 20:28 -2,3 C -2,8 C -3,3 C 96 % 1000,2 hPa 0,0 l/m 0 min 0 min 0 W/m 29,0 km/h (5 Bft) 95,74 %
22.01.2019 20:26 -2,3 C -2,8 C -3,3 C 96 % 1000,2 hPa 0,0 l/m 0 min 0 min 0 W/m 19,3 km/h (3 Bft) 97,87 %
22.01.2019 20:24 -2,3 C -2,8 C -3,3 C 96 % 1000,2 hPa 0,0 l/m 0 min 0 min 0 W/m 19,3 km/h (3 Bft) 95,74 %
22.01.2019 20:22 -2,3 C -2,8 C -3,3 C 96 % 1000,2 hPa 0,0 l/m 0 min 0 min 0 W/m 22,5 km/h (4 Bft) 95,65 %
22.01.2019 20:20 -2,3 C -2,8 C -3,3 C 96 % 1000,3 hPa 0,0 l/m 0 min 0 min 0 W/m 25,7 km/h (4 Bft) 97,87 %
22.01.2019 20:18 -2,3 C -2,8 C -3,3 C 96 % 1000,3 hPa 0,0 l/m 0 min 0 min 0 W/m 22,5 km/h (4 Bft) 97,87 %
22.01.2019 20:16 -2,3 C -2,8 C -3,3 C 96 % 1000,3 hPa 0,0 l/m 0 min 0 min 0 W/m 19,3 km/h (3 Bft) 97,87 %
22.01.2019 20:14 -2,3 C -2,8 C -3,3 C 96 % 1000,3 hPa 0,0 l/m 0 min 0 min 0 W/m 25,7 km/h (4 Bft) 100,00 %
22.01.2019 20:12 -2,3 C -2,8 C -3,3 C 96 % 1000,3 hPa 0,0 l/m 0 min 0 min 0 W/m 19,3 km/h (3 Bft) 100,00 %
22.01.2019 20:10 -2,3 C -2,8 C -3,3 C 96 % 1000,3 hPa 0,0 l/m 0 min 0 min 0 W/m 29,0 km/h (5 Bft) 100,00 %
22.01.2019 20:08 -2,4 C -2,8 C -3,3 C 95 % 1000,3 hPa 0,0 l/m 0 min 0 min 0 W/m 29,0 km/h (5 Bft) 97,14 %
22.01.2019 20:06 -2,4 C -2,8 C -3,3 C 95 % 1000,3 hPa 0,0 l/m 0 min 0 min 0 W/m 22,5 km/h (4 Bft) 100,00 %
22.01.2019 20:04 -2,4 C -2,8 C -3,3 C 95 % 1000,3 hPa 0,0 l/m 0 min 0 min 0 W/m 25,7 km/h (4 Bft) 97,87 %
22.01.2019 20:02 -2,4 C -2,8 C -3,3 C 95 % 1000,3 hPa 0,0 l/m 0 min 0 min 0 W/m 22,5 km/h (4 Bft) 95,74 %
22.01.2019 20:00 -2,4 C -2,8 C -3,3 C 95 % 1000,3 hPa 0,0 l/m 0 min 0 min 0 W/m 25,7 km/h (4 Bft) 93,62 %
22.01.2019 19:58 -2,4 C -2,8 C -3,3 C 95 % 1000,4 hPa 0,0 l/m 0 min 0 min 0 W/m 22,5 km/h (4 Bft) 100,00 %
22.01.2019 19:56 -2,4 C -2,8 C -3,3 C 95 % 1000,3 hPa 0,0 l/m 0 min 0 min 0 W/m 19,3 km/h (3 Bft) 97,87 %
22.01.2019 19:54 -2,4 C -2,8 C -3,3 C 95 % 1000,3 hPa 0,0 l/m 0 min 0 min 0 W/m 19,3 km/h (3 Bft) 100,00 %
22.01.2019 19:52 -2,4 C -2,8 C -3,3 C 95 % 1000,4 hPa 0,0 l/m 0 min 0 min 0 W/m 25,7 km/h (4 Bft) 97,87 %
22.01.2019 19:50 -2,4 C -2,8 C -3,3 C 95 % 1000,3 hPa 0,0 l/m 0 min 0 min 0 W/m 22,5 km/h (4 Bft) 100,00 %
22.01.2019 19:48 -2,4 C -2,8 C -3,3 C 95 % 1000,3 hPa 0,0 l/m 0 min 0 min 0 W/m 25,7 km/h (4 Bft) 97,83 %
22.01.2019 19:46 -2,4 C -2,8 C -3,3 C 95 % 1000,4 hPa 0,0 l/m 0 min 0 min 0 W/m 25,7 km/h (4 Bft) 97,87 %
22.01.2019 19:44 -2,4 C -2,8 C -3,3 C 95 % 1000,4 hPa 0,0 l/m 0 min 0 min 0 W/m 25,7 km/h (4 Bft) 100,00 %
22.01.2019 19:42 -2,4 C -2,8 C -3,3 C 95 % 1000,4 hPa 0,0 l/m 0 min 0 min 0 W/m 22,5 km/h (4 Bft) 100,00 %
22.01.2019 19:40 -2,4 C -2,8 C -3,3 C 95 % 1000,5 hPa 0,0 l/m 0 min 0 min 0 W/m 22,5 km/h (4 Bft) 100,00 %
22.01.2019 19:38 -2,4 C -2,8 C -3,3 C 95 % 1000,5 hPa 0,0 l/m 0 min 0 min 0 W/m 29,0 km/h (5 Bft) 100,00 %
22.01.2019 19:36 -2,4 C -2,8 C -3,3 C 95 % 1000,5 hPa 0,0 l/m 0 min 0 min 0 W/m 22,5 km/h (4 Bft) 96,55 %
22.01.2019 19:34 -2,4 C -2,8 C -3,3 C 95 % 1000,6 hPa 0,0 l/m 0 min 0 min 0 W/m 25,7 km/h (4 Bft) 97,87 %
22.01.2019 19:32 -2,4 C -2,8 C -3,3 C 95 % 1000,5 hPa 0,0 l/m 0 min 0 min 0 W/m 29,0 km/h (5 Bft) 95,74 %
22.01.2019 19:30 -2,4 C -2,8 C -3,3 C 95 % 1000,6 hPa 0,0 l/m 0 min 0 min 0 W/m 22,5 km/h (4 Bft) 95,74 %
22.01.2019 19:28 -2,4 C -2,8 C -3,3 C 95 % 1000,7 hPa 0,0 l/m 0 min 0 min 0 W/m 22,5 km/h (4 Bft) 97,87 %
22.01.2019 19:26 -2,4 C -2,8 C -3,3 C 95 % 1000,7 hPa 0,0 l/m 0 min 0 min 0 W/m 29,0 km/h (5 Bft) 95,74 %
22.01.2019 19:24 -2,4 C -2,8 C -3,3 C 95 % 1000,6 hPa 0,0 l/m 0 min 0 min 0 W/m 22,5 km/h (4 Bft) 97,83 %
22.01.2019 19:22 -2,4 C -2,8 C -3,3 C 95 % 1000,7 hPa 0,0 l/m 0 min 0 min 0 W/m 22,5 km/h (4 Bft) 93,62 %
22.01.2019 19:20 -2,4 C -2,8 C -3,3 C 95 % 1000,7 hPa 0,0 l/m 0 min 0 min 0 W/m 22,5 km/h (4 Bft) 97,87 %
22.01.2019 19:18 -2,4 C -2,8 C -3,3 C 95 % 1000,7 hPa 0,0 l/m 0 min 0 min 0 W/m 22,5 km/h (4 Bft) 98,11 %
22.01.2019 19:16 -2,5 C -2,8 C -3,3 C 95 % 1000,7 hPa 0,0 l/m 0 min 0 min 0 W/m 25,7 km/h (4 Bft) 97,56 %
22.01.2019 19:14 -2,4 C -2,8 C -3,3 C 95 % 1000,7 hPa 0,0 l/m 0 min 0 min 0 W/m 25,7 km/h (4 Bft) 95,74 %
22.01.2019 19:12 -2,4 C -2,8 C -3,3 C 95 % 1000,6 hPa 0,0 l/m 0 min 0 min 0 W/m 35,4 km/h (5 Bft) 97,83 %
22.01.2019 19:10 -2,4 C -2,8 C -3,3 C 95 % 1000,6 hPa 0,0 l/m 0 min 0 min 0 W/m 32,2 km/h (5 Bft) 97,87 %
22.01.2019 19:08 -2,4 C -2,8 C -3,3 C 95 % 1000,7 hPa 0,0 l/m 0 min 0 min 0 W/m 22,5 km/h (4 Bft) 97,14 %
22.01.2019 19:06 -2,4 C -2,8 C -3,3 C 95 % 1000,7 hPa 0,0 l/m 0 min 0 min 0 W/m 16,1 km/h (3 Bft) 96,61 %
22.01.2019 19:04 -2,4 C -2,8 C -3,3 C 94 % 1000,8 hPa 0,0 l/m 0 min 0 min 0 W/m 19,3 km/h (3 Bft) 95,74 %
22.01.2019 19:02 -2,4 C -2,8 C -3,3 C 94 % 1000,7 hPa 0,0 l/m 0 min 0 min 0 W/m 32,2 km/h (5 Bft) 100,00 %
22.01.2019 19:00 -2,4 C -2,8 C -3,3 C 94 % 1000,9 hPa 0,0 l/m 0 min 0 min 0 W/m 16,1 km/h (3 Bft) 93,48 %
22.01.2019 18:58 -2,4 C -2,8 C -3,3 C 94 % 1000,9 hPa 0,0 l/m 0 min 0 min 0 W/m 22,5 km/h (4 Bft) 93,62 %
22.01.2019 18:56 -2,4 C -2,8 C -3,3 C 94 % 1000,8 hPa 0,0 l/m 0 min 0 min 0 W/m 19,3 km/h (3 Bft) 93,62 %
22.01.2019 18:54 -2,4 C -2,8 C -3,3 C 94 % 1000,9 hPa 0,0 l/m 0 min 0 min 0 W/m 25,7 km/h (4 Bft) 95,74 %
22.01.2019 18:52 -2,4 C -2,8 C -3,3 C 94 % 1000,9 hPa 0,0 l/m 0 min 0 min 0 W/m 25,7 km/h (4 Bft) 91,49 %
22.01.2019 18:50 -2,4 C -2,8 C -3,3 C 94 % 1001,0 hPa 0,0 l/m 0 min 0 min 0 W/m 25,7 km/h (4 Bft) 95,65 %
22.01.2019 18:48 -2,4 C -2,8 C -3,3 C 94 % 1001,0 hPa 0,0 l/m 0 min 0 min 0 W/m 25,7 km/h (4 Bft) 96,23 %
22.01.2019 18:46 -2,4 C -2,8 C -3,3 C 94 % 1001,0 hPa 0,0 l/m 0 min 0 min 0 W/m 19,3 km/h (3 Bft) 97,56 %
22.01.2019 18:44 -2,4 C -2,8 C -3,3 C 94 % 1001,0 hPa 0,0 l/m 0 min 0 min 0 W/m 22,5 km/h (4 Bft) 97,87 %
22.01.2019 18:42 -2,4 C -2,8 C -3,3 C 94 % 1001,1 hPa 0,0 l/m 0 min 0 min 0 W/m 25,7 km/h (4 Bft) 97,87 %
22.01.2019 18:40 -2,4 C -2,8 C -3,3 C 94 % 1001,1 hPa 0,0 l/m 0 min 0 min 0 W/m 22,5 km/h (4 Bft) 97,87 %
22.01.2019 18:38 -2,4 C -2,8 C -3,3 C 94 % 1001,2 hPa 0,0 l/m 0 min 0 min 0 W/m 25,7 km/h (4 Bft) 91,43 %
22.01.2019 18:36 -2,4 C -2,8 C -3,3 C 94 % 1001,2 hPa 0,0 l/m 0 min 0 min 0 W/m 25,7 km/h (4 Bft) 96,55 %
22.01.2019 18:34 -2,4 C -2,8 C -3,3 C 94 % 1001,2 hPa 0,0 l/m 0 min 0 min 0 W/m 25,7 km/h (4 Bft) 98,11 %
22.01.2019 18:32 -2,4 C -2,8 C -3,3 C 94 % 1001,2 hPa 0,0 l/m 0 min 0 min 0 W/m 19,3 km/h (3 Bft) 97,56 %
22.01.2019 18:30 -2,4 C -2,8 C -3,3 C 93 % 1001,2 hPa 0,0 l/m 0 min 0 min 0 W/m 22,5 km/h (4 Bft) 97,87 %
22.01.2019 18:28 -2,4 C -2,8 C -3,3 C 93 % 1001,2 hPa 0,0 l/m 0 min 0 min 0 W/m 29,0 km/h (5 Bft) 97,87 %
22.01.2019 18:26 -2,4 C -2,8 C -3,3 C 93 % 1001,3 hPa 0,0 l/m 0 min 0 min 0 W/m 29,0 km/h (5 Bft) 97,83 %
22.01.2019 18:24 -2,4 C -2,8 C -3,3 C 93 % 1001,3 hPa 0,0 l/m 0 min 0 min 0 W/m 29,0 km/h (5 Bft) 97,87 %
22.01.2019 18:22 -2,4 C -2,8 C -3,3 C 93 % 1001,3 hPa 0,0 l/m 0 min 0 min 0 W/m 22,5 km/h (4 Bft) 97,87 %
22.01.2019 18:20 -2,4 C -2,8 C -3,3 C 93 % 1001,3 hPa 0,0 l/m 0 min 0 min 0 W/m 25,7 km/h (4 Bft) 97,87 %
22.01.2019 18:18 -2,4 C -2,8 C -3,3 C 93 % 1001,3 hPa 0,0 l/m 0 min 0 min 0 W/m 32,2 km/h (5 Bft) 97,87 %
22.01.2019 18:16 -2,4 C -2,8 C -3,3 C 93 % 1001,3 hPa 0,0 l/m 0 min 0 min 0 W/m 25,7 km/h (4 Bft) 97,83 %
22.01.2019 18:14 -2,3 C -2,8 C -3,3 C 93 % 1001,3 hPa 0,0 l/m 0 min 0 min 0 W/m 25,7 km/h (4 Bft) 100,00 %
22.01.2019 18:12 -2,4 C -2,8 C -3,3 C 93 % 1001,4 hPa 0,0 l/m 0 min 0 min 0 W/m 25,7 km/h (4 Bft) 100,00 %
22.01.2019 18:10 -2,3 C -2,8 C -3,3 C 93 % 1001,4 hPa 0,0 l/m 0 min 0 min 0 W/m 32,2 km/h (5 Bft) 100,00 %
22.01.2019 18:08 -2,3 C -2,8 C -3,3 C 93 % 1001,4 hPa 0,0 l/m 0 min 0 min 0 W/m 32,2 km/h (5 Bft) 95,74 %
22.01.2019 18:04 -2,3 C -2,8 C -3,3 C 93 % 1001,4 hPa 0,0 l/m 0 min 0 min 0 W/m 16,1 km/h (3 Bft) 97,87 %
22.01.2019 18:02 -2,3 C -2,8 C -3,3 C 93 % 1001,4 hPa 0,0 l/m 0 min 0 min 0 W/m 25,7 km/h (4 Bft) 93,48 %
22.01.2019 18:00 -2,3 C -2,8 C -3,3 C 93 % 1001,4 hPa 0,0 l/m 0 min 0 min 0 W/m 29,0 km/h (5 Bft) 100,00 %
22.01.2019 17:58 -2,3 C -2,8 C -3,3 C 92 % 1001,4 hPa 0,0 l/m 0 min 0 min 0 W/m 22,5 km/h (4 Bft) 100,00 %
22.01.2019 17:56 -2,3 C -2,8 C -3,3 C 93 % 1001,4 hPa 0,0 l/m 0 min 0 min 0 W/m 19,3 km/h (3 Bft) 100,00 %
22.01.2019 17:54 -2,3 C -2,8 C -3,3 C 93 % 1001,4 hPa 0,0 l/m 0 min 0 min 0 W/m 22,5 km/h (4 Bft) 97,87 %
22.01.2019 17:52 -2,3 C -2,8 C -3,3 C 92 % 1001,5 hPa 0,0 l/m 0 min 0 min 0 W/m 25,7 km/h (4 Bft) 100,00 %
22.01.2019 17:50 -2,3 C -2,8 C -3,3 C 92 % 1001,4 hPa 0,0 l/m 0 min 0 min 0 W/m 22,5 km/h (4 Bft) 100,00 %
22.01.2019 17:48 -2,3 C -2,8 C -3,3 C 92 % 1001,4 hPa 0,0 l/m 0 min 0 min 0 W/m 19,3 km/h (3 Bft) 98,11 %
22.01.2019 17:46 -2,3 C -2,8 C -3,3 C 92 % 1001,4 hPa 0,0 l/m 0 min 0 min 0 W/m 19,3 km/h (3 Bft) 100,00 %
22.01.2019 17:44 -2,2 C -2,8 C -3,3 C 92 % 1001,5 hPa 0,0 l/m 0 min 0 min 0 W/m 22,5 km/h (4 Bft) 97,87 %
22.01.2019 17:42 -2,2 C -2,8 C -3,3 C 92 % 1001,5 hPa 0,0 l/m 0 min 0 min 0 W/m 25,7 km/h (4 Bft) 97,87 %
22.01.2019 17:40 -2,2 C -2,8 C -3,3 C 92 % 1001,5 hPa 0,0 l/m 0 min 0 min 0 W/m 29,0 km/h (5 Bft) 100,00 %
22.01.2019 17:38 -2,2 C -2,8 C -3,3 C 92 % 1001,6 hPa 0,0 l/m 0 min 0 min 0 W/m 19,3 km/h (3 Bft) 100,00 %
22.01.2019 17:36 -2,2 C -2,8 C -3,3 C 92 % 1001,6 hPa 0,0 l/m 0 min 0 min 0 W/m 22,5 km/h (4 Bft) 100,00 %
22.01.2019 17:34 -2,2 C -2,8 C -3,3 C 91 % 1001,7 hPa 0,0 l/m 0 min 0 min 0 W/m 22,5 km/h (4 Bft) 97,87 %
22.01.2019 17:32 -2,2 C -2,8 C -3,3 C 91 % 1001,6 hPa 0,0 l/m 0 min 0 min 0 W/m 19,3 km/h (3 Bft) 100,00 %
22.01.2019 17:30 -2,1 C -2,8 C -3,3 C 91 % 1001,6 hPa 0,0 l/m 0 min 0 min 0 W/m 22,5 km/h (4 Bft) 100,00 %
22.01.2019 17:28 -2,1 C -2,8 C -3,3 C 91 % 1001,7 hPa 0,0 l/m 0 min 0 min 0 W/m 12,9 km/h (3 Bft) 100,00 %
22.01.2019 17:26 -2,1 C -2,8 C -3,3 C 91 % 1001,6 hPa 0,0 l/m 0 min 0 min 0 W/m 25,7 km/h (4 Bft) 100,00 %
22.01.2019 17:24 -2,1 C -2,8 C -3,3 C 91 % 1001,7 hPa 0,0 l/m 0 min 0 min 0 W/m 25,7 km/h (4 Bft) 97,87 %
22.01.2019 17:22 -2,0 C -2,8 C -3,3 C 90 % 1001,7 hPa 0,0 l/m 0 min 0 min 0 W/m 22,5 km/h (4 Bft) 98,11 %
22.01.2019 17:20 -2,0 C -2,8 C -3,3 C 90 % 1001,7 hPa 0,0 l/m 0 min 0 min 0 W/m 22,5 km/h (4 Bft) 100,00 %
22.01.2019 17:18 -2,0 C -2,8 C -3,3 C 90 % 1001,7 hPa 0,0 l/m 0 min 0 min 0 W/m 19,3 km/h (3 Bft) 100,00 %
22.01.2019 17:16 -1,9 C -2,8 C -3,3 C 90 % 1001,8 hPa 0,0 l/m 0 min 0 min 0 W/m 22,5 km/h (4 Bft) 98,28 %
22.01.2019 17:14 -1,9 C -2,8 C -3,3 C 90 % 1001,8 hPa 0,0 l/m 0 min 0 min 0 W/m 25,7 km/h (4 Bft) 97,14 %
22.01.2019 17:12 -1,9 C -2,8 C -3,3 C 90 % 1001,8 hPa 0,0 l/m 0 min 0 min 0 W/m 22,5 km/h (4 Bft) 97,87 %
22.01.2019 17:10 -1,9 C -2,8 C -3,3 C 89 % 1001,8 hPa 0,0 l/m 0 min 0 min 0 W/m 19,3 km/h (3 Bft) 93,62 %
22.01.2019 17:08 -1,8 C -2,8 C -2,8 C 89 % 1001,8 hPa 0,0 l/m 0 min 0 min 0 W/m 25,7 km/h (4 Bft) 97,87 %
22.01.2019 17:06 -1,8 C -2,8 C -2,8 C 89 % 1001,8 hPa 0,0 l/m 0 min 0 min 0 W/m 19,3 km/h (3 Bft) 95,74 %
22.01.2019 17:04 -1,7 C -2,8 C -2,8 C 88 % 1001,8 hPa 0,0 l/m 0 min 0 min 0 W/m 25,7 km/h (4 Bft) 97,87 %
22.01.2019 17:02 -1,7 C -2,8 C -2,8 C 88 % 1001,8 hPa 0,0 l/m 0 min 0 min 0 W/m 32,2 km/h (5 Bft) 97,83 %
22.01.2019 17:00 -1,6 C -2,2 C -2,8 C 88 % 1001,9 hPa 0,0 l/m 0 min 0 min 0 W/m 16,1 km/h (3 Bft) 93,62 %
22.01.2019 16:58 -1,6 C -2,2 C -2,8 C 88 % 1001,8 hPa 0,0 l/m 0 min 0 min 0 W/m 22,5 km/h (4 Bft) 97,87 %
22.01.2019 16:56 -1,6 C -2,2 C -2,8 C 87 % 1001,8 hPa 0,0 l/m 0 min 0 min 0 W/m 19,3 km/h (3 Bft) 95,74 %
22.01.2019 16:54 -1,5 C -2,2 C -2,8 C 87 % 1001,8 hPa 0,0 l/m 0 min 0 min 3 W/m 19,3 km/h (3 Bft) 97,87 %
22.01.2019 16:52 -1,4 C -2,2 C -2,8 C 87 % 1001,8 hPa 0,0 l/m 0 min 0 min 5 W/m 22,5 km/h (4 Bft) 98,28 %
22.01.2019 16:50 -1,4 C -2,2 C -2,8 C 87 % 1001,9 hPa 0,0 l/m 0 min 0 min 5 W/m 19,3 km/h (3 Bft) 97,14 %
22.01.2019 16:48 -1,4 C -2,2 C -2,8 C 86 % 1001,9 hPa 0,0 l/m 0 min 0 min 5 W/m 22,5 km/h (4 Bft) 96,61 %
22.01.2019 16:46 -1,3 C -2,2 C -2,8 C 86 % 1002,0 hPa 0,0 l/m 0 min 0 min 5 W/m 12,9 km/h (3 Bft) 97,14 %
22.01.2019 16:44 -1,3 C -2,2 C -2,8 C 85 % 1001,9 hPa 0,0 l/m 0 min 0 min 7 W/m 22,5 km/h (4 Bft) 95,74 %
22.01.2019 16:42 -1,2 C -2,2 C -2,8 C 85 % 1001,9 hPa 0,0 l/m 0 min 0 min 7 W/m 32,2 km/h (5 Bft) 95,74 %
22.01.2019 16:40 -1,2 C -2,2 C -2,2 C 85 % 1002,0 hPa 0,0 l/m 0 min 0 min 8 W/m 25,7 km/h (4 Bft) 95,65 %
22.01.2019 16:38 -1,1 C -1,7 C -2,2 C 85 % 1002,0 hPa 0,0 l/m 0 min 0 min 9 W/m 19,3 km/h (3 Bft) 95,74 %
22.01.2019 16:36 -1,1 C -1,7 C -2,2 C 84 % 1001,9 hPa 0,0 l/m 0 min 0 min 9 W/m 22,5 km/h (4 Bft) 91,49 %
22.01.2019 16:34 -1,1 C -1,7 C -2,2 C 84 % 1001,9 hPa 0,0 l/m 0 min 0 min 11 W/m 22,5 km/h (4 Bft) 93,62 %
22.01.2019 16:32 -1,1 C -1,7 C -2,2 C 84 % 1002,0 hPa 0,0 l/m 0 min 0 min 11 W/m 25,7 km/h (4 Bft) 93,62 %
22.01.2019 16:30 -1,0 C -1,7 C -2,2 C 84 % 1002,0 hPa 0,0 l/m 0 min 0 min 12 W/m 25,7 km/h (4 Bft) 93,62 %
22.01.2019 16:28 -1,0 C -1,7 C -2,2 C 83 % 1002,0 hPa 0,0 l/m 0 min 0 min 12 W/m 19,3 km/h (3 Bft) 93,48 %
22.01.2019 16:26 -0,9 C -1,7 C -2,2 C 83 % 1002,0 hPa 0,0 l/m 0 min 0 min 12 W/m 16,1 km/h (3 Bft) 91,49 %
22.01.2019 16:24 -0,9 C -1,7 C -2,2 C 82 % 1002,1 hPa 0,0 l/m 0 min 0 min 12 W/m 25,7 km/h (4 Bft) 93,62 %
22.01.2019 16:22 -0,9 C -1,7 C -2,2 C 82 % 1002,1 hPa 0,0 l/m 0 min 0 min 13 W/m 22,5 km/h (4 Bft) 91,53 %
22.01.2019 16:20 -0,9 C -1,7 C -2,2 C 82 % 1002,0 hPa 0,0 l/m 0 min 0 min 14 W/m 32,2 km/h (5 Bft) 91,43 %
22.01.2019 16:18 -0,9 C -1,7 C -1,7 C 81 % 1002,0 hPa 0,0 l/m 0 min 0 min 14 W/m 25,7 km/h (4 Bft) 91,49 %
22.01.2019 16:16 -0,8 C -1,7 C -1,7 C 81 % 1002,1 hPa 0,0 l/m 0 min 0 min 16 W/m 29,0 km/h (5 Bft) 93,48 %
22.01.2019 16:14 -0,8 C -1,1 C -1,7 C 81 % 1002,0 hPa 0,0 l/m 0 min 0 min 17 W/m 38,6 km/h (5 Bft) 91,49 %
22.01.2019 16:12 -0,8 C -1,1 C -1,7 C 81 % 1002,1 hPa 0,0 l/m 0 min 0 min 18 W/m 32,2 km/h (5 Bft) 95,74 %
22.01.2019 16:10 -0,8 C -1,1 C -1,7 C 81 % 1002,1 hPa 0,0 l/m 0 min 0 min 18 W/m 25,7 km/h (4 Bft) 91,49 %
22.01.2019 16:08 -0,8 C -1,1 C -1,7 C 80 % 1002,2 hPa 0,0 l/m 0 min 0 min 19 W/m 25,7 km/h (4 Bft) 93,62 %
22.01.2019 16:06 -0,8 C -1,1 C -1,7 C 80 % 1002,2 hPa 0,0 l/m 0 min 0 min 20 W/m 22,5 km/h (4 Bft) 91,49 %
22.01.2019 16:04 -0,8 C -1,1 C -1,7 C 80 % 1002,2 hPa 0,0 l/m 0 min 0 min 22 W/m 16,1 km/h (3 Bft) 93,48 %
22.01.2019 16:02 -0,8 C -1,1 C -1,7 C 80 % 1002,2 hPa 0,0 l/m 0 min 0 min 23 W/m 22,5 km/h (4 Bft) 93,62 %
22.01.2019 16:00 -0,8 C -1,1 C -1,7 C 80 % 1002,2 hPa 0,0 l/m 0 min 0 min 25 W/m 32,2 km/h (5 Bft) 95,74 %
22.01.2019 15:58 -0,8 C -1,1 C -1,7 C 80 % 1002,2 hPa 0,0 l/m 0 min 0 min 26 W/m 19,3 km/h (3 Bft) 97,87 %
22.01.2019 15:56 -0,8 C -1,1 C -1,7 C 80 % 1002,2 hPa 0,0 l/m 0 min 0 min 27 W/m 25,7 km/h (4 Bft) 95,74 %
22.01.2019 15:54 -0,8 C -1,1 C -1,7 C 80 % 1002,3 hPa 0,0 l/m 0 min 0 min 28 W/m 22,5 km/h (4 Bft) 93,10 %
22.01.2019 15:52 -0,8 C -1,1 C -1,7 C 80 % 1002,3 hPa 0,0 l/m 0 min 0 min 30 W/m 25,7 km/h (4 Bft) 100,00 %
22.01.2019 15:50 -0,8 C -1,1 C -1,7 C 80 % 1002,3 hPa 0,0 l/m 0 min 0 min 32 W/m 35,4 km/h (5 Bft) 98,31 %
22.01.2019 15:48 -0,8 C -1,1 C -1,7 C 80 % 1002,3 hPa 0,0 l/m 0 min 0 min 34 W/m 22,5 km/h (4 Bft) 100,00 %
22.01.2019 15:46 -0,8 C -1,1 C -1,7 C 80 % 1002,3 hPa 0,0 l/m 0 min 0 min 35 W/m 25,7 km/h (4 Bft) 95,74 %
22.01.2019 15:44 -0,8 C -1,1 C -1,7 C 79 % 1002,2 hPa 0,0 l/m 0 min 0 min 37 W/m 29,0 km/h (5 Bft) 97,87 %
22.01.2019 15:42 -0,8 C -1,1 C -1,7 C 80 % 1002,3 hPa 0,0 l/m 0 min 0 min 40 W/m 38,6 km/h (5 Bft) 100,00 %
22.01.2019 15:40 -0,8 C -1,1 C -1,7 C 79 % 1002,3 hPa 0,0 l/m 0 min 0 min 45 W/m 12,9 km/h (3 Bft) 97,87 %
22.01.2019 15:38 -0,8 C -1,1 C -1,7 C 79 % 1002,3 hPa 0,0 l/m 0 min 0 min 50 W/m 32,2 km/h (5 Bft) 97,87 %
22.01.2019 15:36 -0,8 C -1,1 C -1,7 C 79 % 1002,3 hPa 0,0 l/m 0 min 0 min 54 W/m 25,7 km/h (4 Bft) 100,00 %
22.01.2019 15:34 -0,8 C -1,1 C -1,7 C 79 % 1002,3 hPa 0,0 l/m 0 min 0 min 56 W/m 25,7 km/h (4 Bft) 97,87 %
22.01.2019 15:32 -0,8 C -1,1 C -1,7 C 79 % 1002,3 hPa 0,0 l/m 0 min 0 min 56 W/m 38,6 km/h (5 Bft) 100,00 %
22.01.2019 15:30 -0,8 C -1,1 C -1,7 C 79 % 1002,3 hPa 0,0 l/m 0 min 0 min 56 W/m 29,0 km/h (5 Bft) 100,00 %
22.01.2019 15:28 -0,8 C -1,1 C -1,7 C 79 % 1002,3 hPa 0,0 l/m 0 min 0 min 58 W/m 22,5 km/h (4 Bft) 100,00 %
22.01.2019 15:26 -0,8 C -1,1 C -1,7 C 79 % 1002,3 hPa 0,0 l/m 0 min 0 min 58 W/m 25,7 km/h (4 Bft) 100,00 %
22.01.2019 15:24 -0,8 C -1,1 C -1,7 C 79 % 1002,3 hPa 0,0 l/m 0 min 0 min 59 W/m 35,4 km/h (5 Bft) 100,00 %
22.01.2019 15:22 -0,8 C -1,1 C -1,7 C 78 % 1002,4 hPa 0,0 l/m 0 min 0 min 62 W/m 19,3 km/h (3 Bft) 100,00 %
22.01.2019 15:20 -0,8 C -1,1 C -1,7 C 78 % 1002,4 hPa 0,0 l/m 0 min 0 min 63 W/m 25,7 km/h (4 Bft) 100,00 %
22.01.2019 15:18 -0,8 C -1,1 C -1,7 C 78 % 1002,3 hPa 0,0 l/m 0 min 0 min 62 W/m 29,0 km/h (5 Bft) 100,00 %
22.01.2019 15:16 -0,8 C -1,1 C -1,7 C 78 % 1002,4 hPa 0,0 l/m 0 min 0 min 56 W/m 35,4 km/h (5 Bft) 100,00 %
22.01.2019 15:14 -0,8 C -1,1 C -1,7 C 78 % 1002,3 hPa 0,0 l/m 0 min 0 min 52 W/m 32,2 km/h (5 Bft) 100,00 %
22.01.2019 15:12 -0,8 C -1,1 C -1,7 C 78 % 1002,3 hPa 0,0 l/m 0 min 0 min 49 W/m 25,7 km/h (4 Bft) 100,00 %
22.01.2019 15:10 -0,7 C -1,1 C -1,7 C 77 % 1002,3 hPa 0,0 l/m 0 min 0 min 47 W/m 25,7 km/h (4 Bft) 97,87 %
22.01.2019 15:08 -0,7 C -1,1 C -1,7 C 77 % 1002,4 hPa 0,0 l/m 0 min 0 min 47 W/m 29,0 km/h (5 Bft) 100,00 %
22.01.2019 15:06 -0,7 C -1,1 C -1,7 C 77 % 1002,4 hPa 0,0 l/m 0 min 0 min 49 W/m 32,2 km/h (5 Bft) 97,83 %
22.01.2019 15:04 -0,7 C -1,1 C -1,7 C 77 % 1002,4 hPa 0,0 l/m 0 min 0 min 48 W/m 29,0 km/h (5 Bft) 97,87 %
22.01.2019 15:02 -0,7 C -1,1 C -1,7 C 77 % 1002,5 hPa 0,0 l/m 0 min 0 min 45 W/m 35,4 km/h (5 Bft) 95,74 %
22.01.2019 15:00 -0,7 C -1,1 C -1,7 C 77 % 1002,5 hPa 0,0 l/m 0 min 0 min 42 W/m 32,2 km/h (5 Bft) 100,00 %
22.01.2019 14:58 -0,7 C -1,1 C -1,7 C 77 % 1002,5 hPa 0,0 l/m 0 min 0 min 41 W/m 35,4 km/h (5 Bft) 100,00 %
22.01.2019 14:56 -0,7 C -1,1 C -1,7 C 77 % 1002,6 hPa 0,0 l/m 0 min 0 min 37 W/m 29,0 km/h (5 Bft) 100,00 %
22.01.2019 14:54 -0,7 C -1,1 C -1,7 C 77 % 1002,5 hPa 0,0 l/m 0 min 0 min 34 W/m 29,0 km/h (5 Bft) 100,00 %
22.01.2019 14:52 -0,6 C -1,1 C -1,7 C 77 % 1002,5 hPa 0,0 l/m 0 min 0 min 40 W/m 35,4 km/h (5 Bft) 100,00 %
22.01.2019 14:50 -0,7 C -1,1 C -1,1 C 77 % 1002,6 hPa 0,0 l/m 0 min 0 min 48 W/m 29,0 km/h (5 Bft) 100,00 %
22.01.2019 14:48 -0,7 C -1,1 C -1,1 C 77 % 1002,6 hPa 0,0 l/m 0 min 0 min 49 W/m 22,5 km/h (4 Bft) 100,00 %
22.01.2019 14:46 -0,6 C -1,1 C -1,1 C 77 % 1002,7 hPa 0,0 l/m 0 min 0 min 54 W/m 25,7 km/h (4 Bft) 97,87 %
22.01.2019 14:44 -0,6 C -1,1 C -1,1 C 76 % 1002,6 hPa 0,0 l/m 0 min 0 min 56 W/m 25,7 km/h (4 Bft) 97,87 %
22.01.2019 14:42 -0,6 C -1,1 C -1,1 C 77 % 1002,7 hPa 0,0 l/m 0 min 0 min 60 W/m 29,0 km/h (5 Bft) 100,00 %
22.01.2019 14:40 -0,6 C -1,1 C -1,1 C 77 % 1002,6 hPa 0,0 l/m 0 min 0 min 62 W/m 29,0 km/h (5 Bft) 100,00 %
22.01.2019 14:38 -0,6 C -1,1 C -1,1 C 77 % 1002,6 hPa 0,0 l/m 0 min 0 min 62 W/m 22,5 km/h (4 Bft) 100,00 %
22.01.2019 14:36 -0,6 C -1,1 C -1,1 C 76 % 1002,6 hPa 0,0 l/m 0 min 0 min 59 W/m 22,5 km/h (4 Bft) 100,00 %
22.01.2019 14:34 -0,6 C -1,1 C -1,1 C 76 % 1002,7 hPa 0,0 l/m 0 min 0 min 55 W/m 29,0 km/h (5 Bft) 100,00 %
22.01.2019 14:32 -0,6 C -1,1 C -1,1 C 76 % 1002,8 hPa 0,0 l/m 0 min 0 min 54 W/m 29,0 km/h (5 Bft) 100,00 %
22.01.2019 14:30 -0,6 C -1,1 C -1,1 C 76 % 1002,9 hPa 0,0 l/m 0 min 0 min 54 W/m 25,7 km/h (4 Bft) 100,00 %
22.01.2019 14:28 -0,6 C -1,1 C -1,1 C 76 % 1002,8 hPa 0,0 l/m 0 min 0 min 57 W/m 29,0 km/h (5 Bft) 97,87 %
22.01.2019 14:26 -0,6 C -1,1 C -1,1 C 76 % 1002,8 hPa 0,0 l/m 0 min 0 min 58 W/m 32,2 km/h (5 Bft) 100,00 %
22.01.2019 14:24 -0,6 C -1,1 C -1,1 C 76 % 1002,8 hPa 0,0 l/m 0 min 0 min 60 W/m 32,2 km/h (5 Bft) 100,00 %
22.01.2019 14:22 -0,6 C -1,1 C -1,1 C 76 % 1002,9 hPa 0,0 l/m 0 min 0 min 63 W/m 22,5 km/h (4 Bft) 100,00 %
22.01.2019 14:20 -0,6 C -1,1 C -1,1 C 76 % 1002,9 hPa 0,0 l/m 0 min 0 min 66 W/m 25,7 km/h (4 Bft) 100,00 %
22.01.2019 14:18 -0,5 C -0,6 C -1,1 C 75 % 1002,9 hPa 0,0 l/m 0 min 0 min 68 W/m 29,0 km/h (5 Bft) 100,00 %
22.01.2019 14:16 -0,5 C -1,1 C -1,1 C 75 % 1003,0 hPa 0,0 l/m 0 min 0 min 66 W/m 22,5 km/h (4 Bft) 100,00 %
22.01.2019 14:14 -0,5 C -1,1 C -1,1 C 75 % 1003,0 hPa 0,0 l/m 0 min 0 min 67 W/m 41,8 km/h (6 Bft) 100,00 %
22.01.2019 14:12 -0,5 C -0,6 C -1,1 C 75 % 1003,0 hPa 0,0 l/m 0 min 0 min 69 W/m 22,5 km/h (4 Bft) 100,00 %
22.01.2019 14:10 -0,5 C -1,1 C -1,1 C 75 % 1003,0 hPa 0,0 l/m 0 min 0 min 69 W/m 32,2 km/h (5 Bft) 100,00 %
22.01.2019 14:08 -0,4 C -1,1 C -1,1 C 75 % 1003,1 hPa 0,0 l/m 0 min 0 min 66 W/m 25,7 km/h (4 Bft) 100,00 %
22.01.2019 14:06 -0,4 C -1,1 C -1,1 C 75 % 1003,2 hPa 0,0 l/m 0 min 0 min 57 W/m 29,0 km/h (5 Bft) 95,74 %
22.01.2019 14:04 -0,4 C -0,6 C -1,1 C 75 % 1003,2 hPa 0,0 l/m 0 min 0 min 52 W/m 19,3 km/h (3 Bft) 100,00 %
22.01.2019 14:02 -0,3 C -0,6 C -1,1 C 75 % 1003,4 hPa 0,0 l/m 0 min 0 min 53 W/m 38,6 km/h (5 Bft) 97,87 %
22.01.2019 14:00 -0,3 C -0,6 C -1,1 C 75 % 1003,3 hPa 0,0 l/m 0 min 0 min 62 W/m 25,7 km/h (4 Bft) 97,87 %
22.01.2019 13:58 -0,3 C -0,6 C -1,1 C 75 % 1003,3 hPa 0,0 l/m 0 min 0 min 70 W/m 29,0 km/h (5 Bft) 97,87 %
22.01.2019 13:56 -0,3 C -0,6 C -1,1 C 74 % 1003,3 hPa 0,0 l/m 0 min 0 min 81 W/m 22,5 km/h (4 Bft) 95,65 %
22.01.2019 13:54 -0,3 C -0,6 C -0,6 C 74 % 1003,4 hPa 0,0 l/m 0 min 0 min 97 W/m 25,7 km/h (4 Bft) 97,87 %
22.01.2019 13:52 -0,2 C 0,0 C -0,6 C 75 % 1003,4 hPa 0,0 l/m 0 min 0 min 117 W/m 29,0 km/h (5 Bft) 95,74 %
22.01.2019 13:50 -0,2 C 0,6 C -0,6 C 75 % 1003,5 hPa 0,0 l/m 0 min 0 min 155 W/m 32,2 km/h (5 Bft) 95,74 %
22.01.2019 13:48 -0,3 C 1,1 C -0,6 C 75 % 1003,5 hPa 0,0 l/m 2 min 0 min 220 W/m 22,5 km/h (4 Bft) 95,74 %
22.01.2019 13:46 -0,3 C 1,1 C -0,6 C 75 % 1003,5 hPa 0,0 l/m 2 min 0 min 264 W/m 25,7 km/h (4 Bft) 95,74 %
22.01.2019 13:44 -0,3 C 1,1 C -0,6 C 75 % 1003,4 hPa 0,0 l/m 2 min 0 min 243 W/m 19,3 km/h (3 Bft) 95,65 %
22.01.2019 13:42 -0,3 C 0,6 C -0,6 C 75 % 1003,4 hPa 0,0 l/m 2 min 0 min 222 W/m 32,2 km/h (5 Bft) 93,62 %
22.01.2019 13:40 -0,3 C 1,1 C -0,6 C 75 % 1003,5 hPa 0,0 l/m 2 min 0 min 248 W/m 29,0 km/h (5 Bft) 95,74 %
22.01.2019 13:38 -0,3 C 1,7 C -0,6 C 74 % 1003,5 hPa 0,0 l/m 2 min 0 min 281 W/m 25,7 km/h (4 Bft) 95,74 %
22.01.2019 13:36 -0,3 C 1,7 C -0,6 C 74 % 1003,5 hPa 0,0 l/m 2 min 0 min 284 W/m 35,4 km/h (5 Bft) 91,30 %
22.01.2019 13:34 -0,4 C 1,1 C -0,6 C 74 % 1003,4 hPa 0,0 l/m 2 min 0 min 308 W/m 25,7 km/h (4 Bft) 96,94 %
22.01.2019 13:32 -0,4 C 1,1 C -0,6 C 75 % 1003,5 hPa 0,0 l/m 2 min 0 min 300 W/m 25,7 km/h (4 Bft) 54,35 %
22.01.2019 13:30 -0,4 C 1,1 C -0,6 C 75 % 1003,5 hPa 0,0 l/m 2 min 0 min 284 W/m 35,4 km/h (5 Bft) 91,49 %
22.01.2019 13:28 -0,4 C 1,7 C -0,6 C 75 % 1003,5 hPa 0,0 l/m 2 min 0 min 288 W/m 32,2 km/h (5 Bft) 93,62 %
22.01.2019 13:26 -0,4 C 1,7 C -0,6 C 75 % 1003,5 hPa 0,0 l/m 2 min 0 min 300 W/m 25,7 km/h (4 Bft) 93,62 %
22.01.2019 13:24 -0,4 C 1,7 C -0,6 C 75 % 1003,7 hPa 0,0 l/m 2 min 0 min 292 W/m 41,8 km/h (6 Bft) 93,62 %
22.01.2019 13:22 -0,5 C 1,7 C -0,6 C 75 % 1003,8 hPa 0,0 l/m 2 min 0 min 291 W/m 25,7 km/h (4 Bft) 93,48 %
22.01.2019 13:20 -0,5 C 1,1 C -1,1 C 74 % 1003,9 hPa 0,0 l/m 2 min 0 min 291 W/m 25,7 km/h (4 Bft) 89,36 %
22.01.2019 13:18 -0,4 C 1,1 C -1,1 C 74 % 1003,9 hPa 0,0 l/m 2 min 0 min 265 W/m 32,2 km/h (5 Bft) 93,62 %
22.01.2019 13:16 -0,4 C 1,1 C -0,6 C 74 % 1003,9 hPa 0,0 l/m 2 min 0 min 255 W/m 25,7 km/h (4 Bft) 91,49 %
22.01.2019 13:14 -0,4 C 1,1 C -1,1 C 74 % 1003,9 hPa 0,0 l/m 2 min 0 min 229 W/m 25,7 km/h (4 Bft) 95,74 %
22.01.2019 13:12 -0,4 C 1,1 C -1,1 C 74 % 1004,0 hPa 0,0 l/m 2 min 0 min 259 W/m 32,2 km/h (5 Bft) 93,62 %
22.01.2019 13:10 -0,4 C 0,6 C -1,1 C 74 % 1004,1 hPa 0,0 l/m 2 min 0 min 238 W/m 29,0 km/h (5 Bft) 93,48 %
22.01.2019 13:08 -0,4 C 0,6 C -0,6 C 75 % 1004,1 hPa 0,0 l/m 2 min 0 min 236 W/m 29,0 km/h (5 Bft) 95,74 %
22.01.2019 13:06 -0,4 C 1,1 C -0,6 C 75 % 1004,1 hPa 0,0 l/m 2 min 0 min 245 W/m 38,6 km/h (5 Bft) 97,87 %
22.01.2019 13:04 -0,5 C 2,2 C -0,6 C 75 % 1004,2 hPa 0,0 l/m 2 min 0 min 295 W/m 25,7 km/h (4 Bft) 95,74 %
22.01.2019 13:02 -0,6 C 3,3 C -0,6 C 76 % 1004,3 hPa 0,0 l/m 2 min 0 min 351 W/m 16,1 km/h (3 Bft) 95,74 %
22.01.2019 13:00 -0,7 C 2,8 C -0,6 C 75 % 1004,3 hPa 0,0 l/m 2 min 0 min 353 W/m 22,5 km/h (4 Bft) 97,87 %
22.01.2019 12:58 -0,7 C 2,2 C -0,6 C 75 % 1004,3 hPa 0,0 l/m 2 min 0 min 335 W/m 38,6 km/h (5 Bft) 97,83 %
22.01.2019 12:56 -0,8 C 2,2 C -0,6 C 76 % 1004,4 hPa 0,0 l/m 2 min 0 min 384 W/m 25,7 km/h (4 Bft) 95,74 %
22.01.2019 12:54 -0,9 C 1,7 C -0,6 C 76 % 1004,4 hPa 0,0 l/m 2 min 0 min 322 W/m 29,0 km/h (5 Bft) 95,74 %
22.01.2019 12:52 -0,9 C 1,7 C -0,6 C 76 % 1004,4 hPa 0,0 l/m 2 min 0 min 332 W/m 22,5 km/h (4 Bft) 95,74 %
22.01.2019 12:50 -1,0 C 1,1 C -0,6 C 76 % 1004,5 hPa 0,0 l/m 2 min 0 min 328 W/m 25,7 km/h (4 Bft) 100,00 %
22.01.2019 12:48 -1,1 C 1,1 C 0,0 C 76 % 1004,5 hPa 0,0 l/m 2 min 0 min 276 W/m 29,0 km/h (5 Bft) 100,00 %
22.01.2019 12:46 -1,1 C 0,6 C 0,0 C 76 % 1004,6 hPa 0,0 l/m 2 min 0 min 273 W/m 35,4 km/h (5 Bft) 97,83 %
22.01.2019 12:44 -1,2 C 0,6 C 0,6 C 77 % 1004,7 hPa 0,0 l/m 2 min 0 min 293 W/m 29,0 km/h (5 Bft) 93,62 %
22.01.2019 12:42 -1,2 C 0,6 C 0,0 C 77 % 1004,6 hPa 0,0 l/m 2 min 0 min 290 W/m 22,5 km/h (4 Bft) 100,00 %
22.01.2019 12:40 -1,2 C 0,0 C -0,6 C 77 % 1004,7 hPa 0,0 l/m 2 min 0 min 246 W/m 32,2 km/h (5 Bft) 100,00 %
22.01.2019 12:38 -1,2 C 0,0 C -0,6 C 77 % 1004,7 hPa 0,0 l/m 2 min 0 min 222 W/m 22,5 km/h (4 Bft) 100,00 %
22.01.2019 12:36 -1,2 C -0,6 C -1,1 C 77 % 1004,7 hPa 0,0 l/m 0 min 0 min 182 W/m 22,5 km/h (4 Bft) 100,00 %
22.01.2019 12:34 -1,2 C -0,6 C -1,7 C 77 % 1004,8 hPa 0,0 l/m 0 min 0 min 175 W/m 29,0 km/h (5 Bft) 97,83 %
22.01.2019 12:32 -1,3 C -0,6 C -1,1 C 77 % 1004,7 hPa 0,0 l/m 0 min 0 min 177 W/m 19,3 km/h (3 Bft) 100,00 %
22.01.2019 12:30 -1,3 C -0,6 C -1,7 C 77 % 1004,7 hPa 0,0 l/m 2 min 0 min 187 W/m 29,0 km/h (5 Bft) 97,87 %
22.01.2019 12:28 -1,3 C 0,0 C -1,1 C 78 % 1004,8 hPa 0,0 l/m 2 min 0 min 255 W/m 45,1 km/h (6 Bft) 97,87 %
22.01.2019 12:26 -1,3 C 0,6 C -1,1 C 78 % 1004,8 hPa 0,0 l/m 2 min 0 min 301 W/m 29,0 km/h (5 Bft) 100,00 %
22.01.2019 12:24 -1,4 C 1,1 C -1,1 C 79 % 1004,8 hPa 0,0 l/m 2 min 0 min 299 W/m 25,7 km/h (4 Bft) 100,00 %
22.01.2019 12:22 -1,4 C 1,1 C -1,1 C 79 % 1004,9 hPa 0,0 l/m 2 min 0 min 311 W/m 22,5 km/h (4 Bft) 97,87 %
22.01.2019 12:20 -1,6 C 0,6 C -1,7 C 79 % 1004,9 hPa 0,0 l/m 2 min 0 min 254 W/m 25,7 km/h (4 Bft) 100,00 %
22.01.2019 12:18 -1,6 C 0,0 C -1,7 C 79 % 1004,9 hPa 0,0 l/m 2 min 0 min 266 W/m 38,6 km/h (5 Bft) 100,00 %
22.01.2019 12:16 -1,6 C 0,0 C -1,7 C 79 % 1005,0 hPa 0,0 l/m 2 min 0 min 258 W/m 25,7 km/h (4 Bft) 97,87 %
22.01.2019 12:14 -1,7 C -0,6 C -1,7 C 79 % 1005,0 hPa 0,0 l/m 2 min 0 min 218 W/m 25,7 km/h (4 Bft) 100,00 %
22.01.2019 12:12 -1,7 C -0,6 C -1,7 C 79 % 1005,0 hPa 0,0 l/m 2 min 0 min 207 W/m 29,0 km/h (5 Bft) 100,00 %
22.01.2019 12:10 -1,7 C -1,1 C -2,2 C 79 % 1005,0 hPa 0,0 l/m 2 min 0 min 185 W/m 29,0 km/h (5 Bft) 100,00 %
22.01.2019 12:08 -1,7 C -1,1 C -2,2 C 79 % 1005,0 hPa 0,0 l/m 0 min 0 min 161 W/m 35,4 km/h (5 Bft) 100,00 %
22.01.2019 12:04 -1,8 C -1,1 C -2,2 C 79 % 1005,0 hPa 0,0 l/m 0 min 0 min 159 W/m 32,2 km/h (5 Bft) 100,00 %
22.01.2019 12:02 -1,8 C -1,1 C -2,2 C 80 % 1005,1 hPa 0,0 l/m 0 min 0 min 164 W/m 29,0 km/h (5 Bft) 97,87 %
22.01.2019 12:00 -1,8 C -1,1 C -2,2 C 80 % 1005,0 hPa 0,0 l/m 0 min 0 min 176 W/m 29,0 km/h (5 Bft) 100,00 %
_ Min-Zeit 22:46 06:58 07:24 13:10 06:52 - - - - 04:02 13:32
Minimum _ -2,7 C -3,3 C -4,4 C 74 % 995,8 hPa - - - - 6,4 km/h (2 Bft) 54,35 %
_ Max-Zeit 13:50 13:02 12:44 00:10 12:02 12:00 12:10 12:00 12:56 12:28 12:00
Maximum _ -0,2 C 3,3 C 0,6 C 97 % 1005,1 hPa 0,0 l/m 2 min 0 min 384 W/m 45,1 km/h
O-SO (6 Bft)
100,00 %
Durchschnitt _ -1,9 C -1,9 C -2,6 C 89 % 999,6 hPa #0,0 l/m #36 min. #0 min. 78 W/m 20,4 km/h (4 Bft) 97,62 %
© 2019 W. Hausmann